Wetterdaten: Samstag, 17.12.2016
Datum Zeit Temp. Aussen Temp. o. S. +5cm Feuchte Auss BlattFeu 1 Luftdruck Regen Sonnenschein Regendauer Solar Windben Empfang
17.12.2016 00:00 2,7 C 3,3 C 1,7 C 93 % 0 lf 1032,9 hPa 0,0 l/m 0 min 0 min 0 W/m 14,6 km/h (3 Bft) 93,48 %
17.12.2016 00:02 2,8 C 3,3 C 2,2 C 93 % 0 lf 1032,9 hPa 0,0 l/m 0 min 0 min 0 W/m 16,7 km/h (3 Bft) 95,35 %
17.12.2016 00:05 2,8 C 3,3 C 2,2 C 93 % 0 lf 1033,0 hPa 0,0 l/m 0 min 0 min 0 W/m 23,0 km/h (4 Bft) 98,59 %
17.12.2016 00:06 2,8 C 3,3 C 2,2 C 93 % 0 lf 1033,0 hPa 0,0 l/m 0 min 0 min 0 W/m 14,6 km/h (3 Bft) 100,00 %
17.12.2016 00:08 2,8 C 3,3 C 2,2 C 93 % 0 lf 1032,9 hPa 0,0 l/m 0 min 0 min 0 W/m 16,7 km/h (3 Bft) 100,00 %
17.12.2016 00:10 2,8 C 3,3 C 2,2 C 93 % 0 lf 1032,9 hPa 0,0 l/m 0 min 0 min 0 W/m 16,7 km/h (3 Bft) 100,00 %
17.12.2016 00:12 2,8 C 3,3 C 2,2 C 93 % 0 lf 1032,8 hPa 0,0 l/m 0 min 0 min 0 W/m 18,8 km/h (3 Bft) 97,87 %
17.12.2016 00:14 2,8 C 3,3 C 2,2 C 93 % 0 lf 1032,8 hPa 0,0 l/m 0 min 0 min 0 W/m 20,9 km/h (4 Bft) 100,00 %
17.12.2016 00:16 2,9 C 3,3 C 1,7 C 93 % 0 lf 1032,7 hPa 0,0 l/m 0 min 0 min 0 W/m 14,6 km/h (3 Bft) 100,00 %
17.12.2016 00:18 2,9 C 3,3 C 1,7 C 93 % 0 lf 1032,8 hPa 0,0 l/m 0 min 0 min 0 W/m 18,8 km/h (3 Bft) 93,62 %
17.12.2016 00:20 2,9 C 3,3 C 1,7 C 93 % 0 lf 1032,8 hPa 0,0 l/m 0 min 0 min 0 W/m 14,6 km/h (3 Bft) 91,49 %
17.12.2016 00:22 2,9 C 3,3 C 1,7 C 93 % 0 lf 1032,7 hPa 0,0 l/m 0 min 0 min 0 W/m 18,8 km/h (3 Bft) 100,00 %
17.12.2016 00:24 2,9 C 3,3 C 2,2 C 93 % 0 lf 1032,7 hPa 0,0 l/m 0 min 0 min 0 W/m 18,8 km/h (3 Bft) 95,74 %
17.12.2016 00:26 2,9 C 3,3 C 2,2 C 93 % 0 lf 1032,8 hPa 0,0 l/m 0 min 0 min 0 W/m 16,7 km/h (3 Bft) 97,87 %
17.12.2016 00:28 2,9 C 3,3 C 2,2 C 93 % 0 lf 1032,8 hPa 0,0 l/m 0 min 0 min 0 W/m 20,9 km/h (4 Bft) 97,87 %
17.12.2016 00:30 2,9 C 3,3 C 2,2 C 93 % 0 lf 1032,8 hPa 0,0 l/m 0 min 0 min 0 W/m 16,7 km/h (3 Bft) 97,87 %
17.12.2016 00:32 2,9 C 3,3 C 2,2 C 93 % 0 lf 1032,9 hPa 0,0 l/m 0 min 0 min 0 W/m 20,9 km/h (4 Bft) 95,83 %
17.12.2016 00:34 2,9 C 3,3 C 1,7 C 93 % 0 lf 1032,8 hPa 0,0 l/m 0 min 0 min 0 W/m 25,1 km/h (4 Bft) 97,83 %
17.12.2016 00:36 2,9 C 3,3 C 1,7 C 93 % 0 lf 1032,8 hPa 0,0 l/m 0 min 0 min 0 W/m 23,0 km/h (4 Bft) 95,74 %
17.12.2016 00:38 2,9 C 3,3 C 1,7 C 92 % 0 lf 1032,7 hPa 0,0 l/m 0 min 0 min 0 W/m 18,8 km/h (3 Bft) 97,87 %
17.12.2016 00:40 2,9 C 3,3 C 1,7 C 93 % 0 lf 1032,7 hPa 0,0 l/m 0 min 0 min 0 W/m 20,9 km/h (4 Bft) 97,87 %
17.12.2016 00:42 2,9 C 3,3 C 1,7 C 93 % 0 lf 1032,7 hPa 0,0 l/m 0 min 0 min 0 W/m 25,1 km/h (4 Bft) 97,87 %
17.12.2016 00:44 2,9 C 3,3 C 1,7 C 93 % 0 lf 1032,7 hPa 0,0 l/m 0 min 0 min 0 W/m 23,0 km/h (4 Bft) 97,83 %
17.12.2016 00:46 2,9 C 3,3 C 1,7 C 93 % 0 lf 1032,8 hPa 0,0 l/m 0 min 0 min 0 W/m 18,8 km/h (3 Bft) 97,87 %
17.12.2016 00:48 2,9 C 3,3 C 1,7 C 93 % 0 lf 1032,7 hPa 0,0 l/m 0 min 0 min 0 W/m 18,8 km/h (3 Bft) 95,74 %
17.12.2016 00:50 2,9 C 3,3 C 1,7 C 92 % 0 lf 1032,7 hPa 0,0 l/m 0 min 0 min 0 W/m 18,8 km/h (3 Bft) 97,87 %
17.12.2016 00:52 2,9 C 3,3 C 1,7 C 92 % 0 lf 1032,7 hPa 0,0 l/m 0 min 0 min 0 W/m 23,0 km/h (4 Bft) 95,74 %
17.12.2016 00:54 2,9 C 3,3 C 1,7 C 92 % 0 lf 1032,8 hPa 0,0 l/m 0 min 0 min 0 W/m 18,8 km/h (3 Bft) 95,74 %
17.12.2016 00:56 2,9 C 3,3 C 1,7 C 92 % 0 lf 1032,7 hPa 0,0 l/m 0 min 0 min 0 W/m 20,9 km/h (4 Bft) 97,83 %
17.12.2016 00:58 2,9 C 3,3 C 1,7 C 92 % 0 lf 1032,7 hPa 0,0 l/m 0 min 0 min 0 W/m 16,7 km/h (3 Bft) 93,62 %
17.12.2016 01:00 2,9 C 3,3 C 1,7 C 92 % 0 lf 1032,8 hPa 0,0 l/m 0 min 0 min 0 W/m 20,9 km/h (4 Bft) 91,49 %
17.12.2016 01:02 2,9 C 3,3 C 1,7 C 92 % 0 lf 1032,8 hPa 0,0 l/m 0 min 0 min 0 W/m 16,7 km/h (3 Bft) 97,22 %
17.12.2016 01:04 2,9 C 3,3 C 1,7 C 92 % 0 lf 1033,0 hPa 0,0 l/m 0 min 0 min 0 W/m 16,7 km/h (3 Bft) 93,62 %
17.12.2016 01:06 2,9 C 3,3 C 1,7 C 92 % 0 lf 1033,1 hPa 0,0 l/m 0 min 0 min 0 W/m 18,8 km/h (3 Bft) 95,74 %
17.12.2016 01:08 2,9 C 3,3 C 1,7 C 92 % 0 lf 1033,3 hPa 0,0 l/m 0 min 0 min 0 W/m 16,7 km/h (3 Bft) 93,62 %
17.12.2016 01:10 2,9 C 3,3 C 1,7 C 92 % 0 lf 1033,4 hPa 0,0 l/m 0 min 0 min 0 W/m 14,6 km/h (3 Bft) 93,62 %
17.12.2016 01:12 2,9 C 3,3 C 1,7 C 92 % 0 lf 1033,3 hPa 0,0 l/m 0 min 0 min 0 W/m 14,6 km/h (3 Bft) 93,48 %
17.12.2016 01:14 2,9 C 3,3 C 1,7 C 92 % 0 lf 1033,2 hPa 0,0 l/m 0 min 0 min 0 W/m 14,6 km/h (3 Bft) 91,49 %
17.12.2016 01:16 2,9 C 3,3 C 1,7 C 92 % 0 lf 1033,2 hPa 0,0 l/m 0 min 0 min 0 W/m 12,6 km/h (3 Bft) 93,22 %
17.12.2016 01:18 2,9 C 3,3 C 1,7 C 92 % 0 lf 1033,1 hPa 0,0 l/m 0 min 0 min 0 W/m 14,6 km/h (3 Bft) 88,57 %
17.12.2016 01:20 2,9 C 3,3 C 1,7 C 92 % 0 lf 1033,1 hPa 0,0 l/m 0 min 0 min 0 W/m 12,6 km/h (3 Bft) 93,10 %
17.12.2016 01:22 2,9 C 3,3 C 1,7 C 92 % 0 lf 1033,2 hPa 0,0 l/m 0 min 0 min 0 W/m 16,7 km/h (3 Bft) 89,36 %
17.12.2016 01:24 2,9 C 3,3 C 1,7 C 92 % 0 lf 1033,2 hPa 0,0 l/m 0 min 0 min 0 W/m 18,8 km/h (3 Bft) 91,43 %
17.12.2016 01:26 2,9 C 3,3 C 1,7 C 92 % 0 lf 1033,0 hPa 0,0 l/m 0 min 0 min 0 W/m 16,7 km/h (3 Bft) 91,49 %
17.12.2016 01:28 2,9 C 3,3 C 1,7 C 92 % 0 lf 1033,0 hPa 0,0 l/m 0 min 0 min 0 W/m 12,6 km/h (3 Bft) 88,14 %
17.12.2016 01:30 2,9 C 3,3 C 1,7 C 92 % 0 lf 1033,1 hPa 0,0 l/m 0 min 0 min 0 W/m 16,7 km/h (3 Bft) 88,57 %
17.12.2016 01:32 2,9 C 3,3 C 1,7 C 92 % 0 lf 1033,1 hPa 0,0 l/m 0 min 0 min 0 W/m 14,6 km/h (3 Bft) 91,67 %
17.12.2016 01:34 2,9 C 3,3 C 1,7 C 92 % 0 lf 1033,0 hPa 0,0 l/m 0 min 0 min 0 W/m 12,6 km/h (3 Bft) 91,30 %
17.12.2016 01:36 2,9 C 3,3 C 1,7 C 92 % 0 lf 1033,1 hPa 0,0 l/m 0 min 0 min 0 W/m 12,6 km/h (3 Bft) 91,67 %
17.12.2016 01:38 2,9 C 3,3 C 1,7 C 92 % 0 lf 1033,0 hPa 0,0 l/m 0 min 0 min 0 W/m 14,6 km/h (3 Bft) 93,62 %
17.12.2016 01:40 2,9 C 3,3 C 1,7 C 92 % 0 lf 1033,0 hPa 0,0 l/m 0 min 0 min 0 W/m 12,6 km/h (3 Bft) 93,62 %
17.12.2016 01:42 2,9 C 3,3 C 1,7 C 92 % 0 lf 1033,1 hPa 0,0 l/m 0 min 0 min 0 W/m 18,8 km/h (3 Bft) 89,36 %
17.12.2016 01:44 2,9 C 3,3 C 1,7 C 92 % 0 lf 1033,1 hPa 0,0 l/m 0 min 0 min 0 W/m 12,6 km/h (3 Bft) 91,49 %
17.12.2016 01:46 2,9 C 3,3 C 1,7 C 92 % 0 lf 1033,3 hPa 0,0 l/m 0 min 0 min 0 W/m 16,7 km/h (3 Bft) 95,65 %
17.12.2016 01:48 2,9 C 3,3 C 1,7 C 92 % 0 lf 1033,2 hPa 0,0 l/m 0 min 0 min 0 W/m 18,8 km/h (3 Bft) 93,62 %
17.12.2016 01:50 2,9 C 3,3 C 1,7 C 92 % 0 lf 1033,2 hPa 0,0 l/m 0 min 0 min 0 W/m 14,6 km/h (3 Bft) 91,49 %
17.12.2016 01:52 2,9 C 3,3 C 1,7 C 92 % 0 lf 1033,2 hPa 0,0 l/m 0 min 0 min 0 W/m 12,6 km/h (3 Bft) 93,62 %
17.12.2016 01:54 2,9 C 3,3 C 1,7 C 92 % 0 lf 1033,1 hPa 0,0 l/m 0 min 0 min 0 W/m 16,7 km/h (3 Bft) 95,74 %
17.12.2016 01:56 2,9 C 3,3 C 1,7 C 92 % 0 lf 1033,1 hPa 0,0 l/m 0 min 0 min 0 W/m 12,6 km/h (3 Bft) 93,62 %
17.12.2016 01:58 2,9 C 3,3 C 1,7 C 92 % 0 lf 1033,1 hPa 0,0 l/m 0 min 0 min 0 W/m 14,6 km/h (3 Bft) 95,65 %
17.12.2016 02:00 2,9 C 3,3 C 1,7 C 92 % 0 lf 1033,0 hPa 0,0 l/m 0 min 0 min 0 W/m 14,6 km/h (3 Bft) 91,49 %
17.12.2016 02:02 2,9 C 3,3 C 1,7 C 93 % 0 lf 1033,0 hPa 0,0 l/m 0 min 0 min 0 W/m 16,7 km/h (3 Bft) 100,00 %
17.12.2016 02:04 2,9 C 3,3 C 1,7 C 93 % 0 lf 1033,0 hPa 0,0 l/m 0 min 0 min 0 W/m 16,7 km/h (3 Bft) 100,00 %
17.12.2016 02:06 2,9 C 3,3 C 1,7 C 93 % 0 lf 1033,0 hPa 0,0 l/m 0 min 0 min 0 W/m 18,8 km/h (3 Bft) 97,87 %
17.12.2016 02:08 2,9 C 3,3 C 1,7 C 93 % 0 lf 1033,2 hPa 0,0 l/m 0 min 0 min 0 W/m 16,7 km/h (3 Bft) 97,87 %
17.12.2016 02:10 2,9 C 3,3 C 1,7 C 93 % 0 lf 1033,1 hPa 0,0 l/m 0 min 0 min 0 W/m 14,6 km/h (3 Bft) 97,83 %
17.12.2016 02:12 2,9 C 3,3 C 1,7 C 93 % 0 lf 1033,1 hPa 0,0 l/m 0 min 0 min 0 W/m 16,7 km/h (3 Bft) 97,87 %
17.12.2016 02:14 2,9 C 3,3 C 1,7 C 93 % 0 lf 1033,1 hPa 0,0 l/m 0 min 0 min 0 W/m 16,7 km/h (3 Bft) 95,74 %
17.12.2016 02:16 2,9 C 3,3 C 1,7 C 93 % 0 lf 1033,2 hPa 0,0 l/m 0 min 0 min 0 W/m 12,6 km/h (3 Bft) 100,00 %
17.12.2016 02:18 2,9 C 3,3 C 1,7 C 93 % 0 lf 1033,2 hPa 0,0 l/m 0 min 0 min 0 W/m 16,7 km/h (3 Bft) 100,00 %
17.12.2016 02:20 2,9 C 3,3 C 1,7 C 93 % 0 lf 1033,3 hPa 0,0 l/m 0 min 0 min 0 W/m 14,6 km/h (3 Bft) 100,00 %
17.12.2016 02:22 2,9 C 3,3 C 1,7 C 93 % 0 lf 1033,3 hPa 0,0 l/m 0 min 0 min 0 W/m 14,6 km/h (3 Bft) 100,00 %
17.12.2016 02:24 2,9 C 3,3 C 1,7 C 93 % 0 lf 1033,3 hPa 0,0 l/m 0 min 0 min 0 W/m 12,6 km/h (3 Bft) 97,87 %
17.12.2016 02:26 3,0 C 3,3 C 1,7 C 93 % 0 lf 1033,3 hPa 0,0 l/m 0 min 0 min 0 W/m 16,7 km/h (3 Bft) 97,87 %
17.12.2016 02:28 3,0 C 3,3 C 1,7 C 93 % 0 lf 1033,3 hPa 0,0 l/m 0 min 0 min 0 W/m 10,5 km/h (2 Bft) 97,87 %
17.12.2016 02:30 3,0 C 3,3 C 1,7 C 93 % 0 lf 1033,4 hPa 0,0 l/m 0 min 0 min 0 W/m 8,4 km/h (2 Bft) 97,87 %
17.12.2016 02:32 3,0 C 3,3 C 1,7 C 93 % 0 lf 1033,4 hPa 0,0 l/m 0 min 0 min 0 W/m 12,6 km/h (3 Bft) 100,00 %
17.12.2016 02:34 3,0 C 3,3 C 1,7 C 93 % 0 lf 1033,4 hPa 0,0 l/m 0 min 0 min 0 W/m 12,6 km/h (3 Bft) 97,87 %
17.12.2016 02:36 3,0 C 3,3 C 1,7 C 93 % 0 lf 1033,5 hPa 0,0 l/m 0 min 0 min 0 W/m 14,6 km/h (3 Bft) 100,00 %
17.12.2016 02:38 3,0 C 3,3 C 1,7 C 93 % 0 lf 1033,5 hPa 0,0 l/m 0 min 0 min 0 W/m 16,7 km/h (3 Bft) 100,00 %
17.12.2016 02:40 3,0 C 3,3 C 1,7 C 93 % 0 lf 1033,7 hPa 0,0 l/m 0 min 0 min 0 W/m 14,6 km/h (3 Bft) 100,00 %
17.12.2016 02:42 3,0 C 3,3 C 1,7 C 93 % 0 lf 1033,7 hPa 0,0 l/m 0 min 0 min 0 W/m 14,6 km/h (3 Bft) 97,83 %
17.12.2016 02:44 3,0 C 3,3 C 2,2 C 93 % 0 lf 1033,7 hPa 0,0 l/m 0 min 0 min 0 W/m 12,6 km/h (3 Bft) 100,00 %
17.12.2016 02:46 3,0 C 3,3 C 2,2 C 93 % 0 lf 1033,7 hPa 0,0 l/m 0 min 0 min 0 W/m 10,5 km/h (2 Bft) 100,00 %
17.12.2016 02:48 3,0 C 3,3 C 2,2 C 93 % 0 lf 1033,7 hPa 0,0 l/m 0 min 0 min 0 W/m 10,5 km/h (2 Bft) 100,00 %
17.12.2016 02:50 3,1 C 3,3 C 2,2 C 93 % 0 lf 1033,7 hPa 0,0 l/m 0 min 0 min 0 W/m 10,5 km/h (2 Bft) 93,62 %
17.12.2016 02:52 3,1 C 3,3 C 2,2 C 93 % 0 lf 1033,6 hPa 0,0 l/m 0 min 0 min 0 W/m 16,7 km/h (3 Bft) 100,00 %
17.12.2016 02:54 3,1 C 3,3 C 2,2 C 93 % 0 lf 1033,6 hPa 0,0 l/m 0 min 0 min 0 W/m 14,6 km/h (3 Bft) 100,00 %
17.12.2016 02:56 3,1 C 3,3 C 2,2 C 93 % 0 lf 1033,5 hPa 0,0 l/m 0 min 0 min 0 W/m 16,7 km/h (3 Bft) 100,00 %
17.12.2016 02:58 3,1 C 3,3 C 2,2 C 93 % 0 lf 1033,5 hPa 0,0 l/m 0 min 0 min 0 W/m 10,5 km/h (2 Bft) 100,00 %
17.12.2016 03:00 3,1 C 3,3 C 2,2 C 93 % 0 lf 1033,5 hPa 0,0 l/m 0 min 0 min 0 W/m 14,6 km/h (3 Bft) 97,87 %
17.12.2016 03:02 3,1 C 3,3 C 2,2 C 93 % 0 lf 1033,5 hPa 0,0 l/m 0 min 0 min 0 W/m 12,6 km/h (3 Bft) 97,92 %
17.12.2016 03:04 3,1 C 3,3 C 2,2 C 93 % 0 lf 1033,5 hPa 0,0 l/m 0 min 0 min 0 W/m 8,4 km/h (2 Bft) 97,87 %
17.12.2016 03:06 3,1 C 3,3 C 2,2 C 93 % 1 lf 1033,5 hPa 0,0 l/m 0 min 0 min 0 W/m 10,5 km/h (2 Bft) 97,37 %
17.12.2016 03:08 3,1 C 3,3 C 2,2 C 93 % 0 lf 1033,4 hPa 0,0 l/m 0 min 0 min 0 W/m 16,7 km/h (3 Bft) 97,83 %
17.12.2016 03:10 3,1 C 3,3 C 2,2 C 93 % 0 lf 1033,5 hPa 0,0 l/m 0 min 0 min 0 W/m 12,6 km/h (3 Bft) 100,00 %
17.12.2016 03:12 3,1 C 3,3 C 2,2 C 93 % 0 lf 1033,6 hPa 0,0 l/m 0 min 0 min 0 W/m 14,6 km/h (3 Bft) 95,83 %
17.12.2016 03:14 3,1 C 3,3 C 2,2 C 93 % 0 lf 1033,6 hPa 0,0 l/m 0 min 0 min 0 W/m 12,6 km/h (3 Bft) 100,00 %
17.12.2016 03:16 3,1 C 3,3 C 2,2 C 93 % 0 lf 1033,6 hPa 0,0 l/m 0 min 0 min 0 W/m 18,8 km/h (3 Bft) 100,00 %
17.12.2016 03:18 3,1 C 3,3 C 2,2 C 93 % 0 lf 1033,5 hPa 0,0 l/m 0 min 0 min 0 W/m 18,8 km/h (3 Bft) 97,83 %
17.12.2016 03:20 3,1 C 3,3 C 2,2 C 93 % 0 lf 1033,5 hPa 0,0 l/m 0 min 0 min 0 W/m 14,6 km/h (3 Bft) 95,74 %
17.12.2016 03:22 3,1 C 3,3 C 2,2 C 93 % 0 lf 1033,5 hPa 0,0 l/m 0 min 0 min 0 W/m 14,6 km/h (3 Bft) 97,92 %
17.12.2016 03:24 3,1 C 3,3 C 2,2 C 93 % 0 lf 1033,5 hPa 0,0 l/m 0 min 0 min 0 W/m 18,8 km/h (3 Bft) 95,74 %
17.12.2016 03:26 3,1 C 3,3 C 2,2 C 93 % 0 lf 1033,6 hPa 0,0 l/m 0 min 0 min 0 W/m 16,7 km/h (3 Bft) 97,87 %
17.12.2016 03:28 3,1 C 3,3 C 2,2 C 93 % 0 lf 1033,6 hPa 0,0 l/m 0 min 0 min 0 W/m 12,6 km/h (3 Bft) 95,74 %
17.12.2016 03:30 3,2 C 3,3 C 2,2 C 93 % 0 lf 1033,6 hPa 0,0 l/m 0 min 0 min 0 W/m 14,6 km/h (3 Bft) 93,48 %
17.12.2016 03:32 3,2 C 3,3 C 2,2 C 93 % 0 lf 1033,5 hPa 0,0 l/m 0 min 0 min 0 W/m 12,6 km/h (3 Bft) 97,92 %
17.12.2016 03:34 3,2 C 3,3 C 2,2 C 93 % 0 lf 1033,5 hPa 0,0 l/m 0 min 0 min 0 W/m 12,6 km/h (3 Bft) 95,74 %
17.12.2016 03:36 3,2 C 3,3 C 2,2 C 93 % 0 lf 1033,5 hPa 0,0 l/m 0 min 0 min 0 W/m 14,6 km/h (3 Bft) 97,92 %
17.12.2016 03:38 3,2 C 3,3 C 2,2 C 93 % 0 lf 1033,5 hPa 0,0 l/m 0 min 0 min 0 W/m 12,6 km/h (3 Bft) 95,74 %
17.12.2016 03:40 3,2 C 3,3 C 2,2 C 93 % 0 lf 1033,5 hPa 0,0 l/m 0 min 0 min 0 W/m 12,6 km/h (3 Bft) 95,74 %
17.12.2016 03:42 3,2 C 3,3 C 2,2 C 92 % 0 lf 1033,5 hPa 0,0 l/m 0 min 0 min 0 W/m 12,6 km/h (3 Bft) 97,83 %
17.12.2016 03:44 3,2 C 3,3 C 2,2 C 92 % 0 lf 1033,4 hPa 0,0 l/m 0 min 0 min 0 W/m 14,6 km/h (3 Bft) 91,49 %
17.12.2016 03:46 3,2 C 3,3 C 2,2 C 92 % 0 lf 1033,5 hPa 0,0 l/m 0 min 0 min 0 W/m 18,8 km/h (3 Bft) 93,62 %
17.12.2016 03:48 3,2 C 3,3 C 2,2 C 92 % 0 lf 1033,5 hPa 0,0 l/m 0 min 0 min 0 W/m 14,6 km/h (3 Bft) 89,36 %
17.12.2016 03:50 3,2 C 3,3 C 2,2 C 92 % 0 lf 1033,4 hPa 0,0 l/m 0 min 0 min 0 W/m 14,6 km/h (3 Bft) 95,74 %
17.12.2016 03:52 3,2 C 3,3 C 1,7 C 92 % 0 lf 1033,6 hPa 0,0 l/m 0 min 0 min 0 W/m 10,5 km/h (2 Bft) 97,87 %
17.12.2016 03:54 3,2 C 3,3 C 1,7 C 92 % 0 lf 1033,6 hPa 0,0 l/m 0 min 0 min 0 W/m 12,6 km/h (3 Bft) 95,65 %
17.12.2016 03:56 3,2 C 3,3 C 1,7 C 92 % 0 lf 1033,7 hPa 0,0 l/m 0 min 0 min 0 W/m 14,6 km/h (3 Bft) 91,49 %
17.12.2016 03:58 3,2 C 3,3 C 1,7 C 92 % 0 lf 1033,7 hPa 0,0 l/m 0 min 0 min 0 W/m 12,6 km/h (3 Bft) 95,74 %
17.12.2016 04:00 3,2 C 3,3 C 1,7 C 92 % 0 lf 1033,7 hPa 0,0 l/m 0 min 0 min 0 W/m 14,6 km/h (3 Bft) 95,74 %
17.12.2016 04:05 3,1 C 3,3 C 1,7 C 92 % 0 lf 1033,8 hPa 0,0 l/m 0 min 0 min 0 W/m 10,5 km/h (2 Bft) 89,66 %
17.12.2016 04:06 3,2 C 3,3 C 1,7 C 92 % 0 lf 1033,8 hPa 0,0 l/m 0 min 0 min 0 W/m 12,6 km/h (3 Bft) 91,30 %
17.12.2016 04:08 3,1 C 3,3 C 1,7 C 92 % 0 lf 1033,7 hPa 0,0 l/m 0 min 0 min 0 W/m 10,5 km/h (2 Bft) 100,00 %
17.12.2016 04:10 3,1 C 3,3 C 2,2 C 92 % 0 lf 1033,8 hPa 0,0 l/m 0 min 0 min 0 W/m 10,5 km/h (2 Bft) 97,87 %
17.12.2016 04:12 3,1 C 3,3 C 2,2 C 92 % 0 lf 1033,7 hPa 0,0 l/m 0 min 0 min 0 W/m 12,6 km/h (3 Bft) 95,74 %
17.12.2016 04:14 3,1 C 3,3 C 2,2 C 92 % 0 lf 1033,8 hPa 0,0 l/m 0 min 0 min 0 W/m 10,5 km/h (2 Bft) 95,74 %
17.12.2016 04:16 3,1 C 3,3 C 2,2 C 92 % 0 lf 1033,8 hPa 0,0 l/m 0 min 0 min 0 W/m 10,5 km/h (2 Bft) 93,48 %
17.12.2016 04:18 3,1 C 3,3 C 2,2 C 92 % 0 lf 1033,8 hPa 0,0 l/m 0 min 0 min 0 W/m 8,4 km/h (2 Bft) 93,62 %
17.12.2016 04:20 3,1 C 3,3 C 2,2 C 92 % 0 lf 1033,9 hPa 0,0 l/m 0 min 0 min 0 W/m 12,6 km/h (3 Bft) 93,62 %
17.12.2016 04:22 3,1 C 3,3 C 2,2 C 92 % 0 lf 1033,9 hPa 0,0 l/m 0 min 0 min 0 W/m 10,5 km/h (2 Bft) 95,74 %
17.12.2016 04:24 3,2 C 3,3 C 2,2 C 92 % 0 lf 1033,9 hPa 0,0 l/m 0 min 0 min 0 W/m 10,5 km/h (2 Bft) 95,74 %
17.12.2016 04:26 3,2 C 3,3 C 2,2 C 92 % 0 lf 1033,9 hPa 0,0 l/m 0 min 0 min 0 W/m 12,6 km/h (3 Bft) 95,74 %
17.12.2016 04:28 3,2 C 3,3 C 2,2 C 92 % 0 lf 1033,8 hPa 0,0 l/m 0 min 0 min 0 W/m 10,5 km/h (2 Bft) 95,65 %
17.12.2016 04:30 3,2 C 3,3 C 2,2 C 92 % 0 lf 1033,9 hPa 0,0 l/m 0 min 0 min 0 W/m 12,6 km/h (3 Bft) 97,87 %
17.12.2016 04:32 3,2 C 3,3 C 2,2 C 92 % 0 lf 1033,9 hPa 0,0 l/m 0 min 0 min 0 W/m 14,6 km/h (3 Bft) 94,34 %
17.12.2016 04:34 3,2 C 3,3 C 2,2 C 92 % 0 lf 1033,8 hPa 0,0 l/m 0 min 0 min 0 W/m 16,7 km/h (3 Bft) 93,62 %
17.12.2016 04:36 3,2 C 3,3 C 2,2 C 92 % 0 lf 1033,9 hPa 0,0 l/m 0 min 0 min 0 W/m 10,5 km/h (2 Bft) 100,00 %
17.12.2016 04:38 3,2 C 3,3 C 2,2 C 92 % 0 lf 1033,9 hPa 0,0 l/m 0 min 0 min 0 W/m 12,6 km/h (3 Bft) 93,62 %
17.12.2016 04:40 3,2 C 3,3 C 2,2 C 92 % 0 lf 1033,8 hPa 0,0 l/m 0 min 0 min 0 W/m 10,5 km/h (2 Bft) 95,65 %
17.12.2016 04:42 3,2 C 3,3 C 2,2 C 92 % 0 lf 1033,9 hPa 0,0 l/m 0 min 0 min 0 W/m 14,6 km/h (3 Bft) 93,62 %
17.12.2016 04:44 3,2 C 3,3 C 2,2 C 92 % 0 lf 1033,8 hPa 0,0 l/m 0 min 0 min 0 W/m 10,5 km/h (2 Bft) 95,74 %
17.12.2016 04:46 3,2 C 3,3 C 2,2 C 92 % 0 lf 1033,9 hPa 0,0 l/m 0 min 0 min 0 W/m 12,6 km/h (3 Bft) 93,62 %
17.12.2016 04:48 3,2 C 3,3 C 2,2 C 92 % 0 lf 1033,8 hPa 0,0 l/m 0 min 0 min 0 W/m 10,5 km/h (2 Bft) 95,74 %
17.12.2016 04:50 3,2 C 3,3 C 2,2 C 92 % 0 lf 1033,8 hPa 0,0 l/m 0 min 0 min 0 W/m 10,5 km/h (2 Bft) 91,49 %
17.12.2016 04:52 3,2 C 3,3 C 2,2 C 92 % 0 lf 1033,8 hPa 0,0 l/m 0 min 0 min 0 W/m 8,4 km/h (2 Bft) 97,83 %
17.12.2016 04:54 3,2 C 3,3 C 1,7 C 92 % 0 lf 1033,7 hPa 0,0 l/m 0 min 0 min 0 W/m 14,6 km/h (3 Bft) 97,87 %
17.12.2016 04:56 3,2 C 3,3 C 1,7 C 92 % 0 lf 1033,7 hPa 0,0 l/m 0 min 0 min 0 W/m 10,5 km/h (2 Bft) 95,74 %
17.12.2016 04:58 3,1 C 3,3 C 1,7 C 92 % 0 lf 1033,7 hPa 0,0 l/m 0 min 0 min 0 W/m 10,5 km/h (2 Bft) 95,74 %
17.12.2016 05:00 3,1 C 3,3 C 1,7 C 92 % 0 lf 1033,6 hPa 0,0 l/m 0 min 0 min 0 W/m 8,4 km/h (2 Bft) 95,74 %
17.12.2016 05:02 3,1 C 3,3 C 1,7 C 92 % 0 lf 1033,7 hPa 0,0 l/m 0 min 0 min 0 W/m 8,4 km/h (2 Bft) 97,92 %
17.12.2016 05:04 3,1 C 3,3 C 1,7 C 92 % 0 lf 1033,7 hPa 0,0 l/m 0 min 0 min 0 W/m 12,6 km/h (3 Bft) 95,65 %
17.12.2016 05:06 3,1 C 3,3 C 1,1 C 92 % 0 lf 1033,7 hPa 0,0 l/m 0 min 0 min 0 W/m 10,5 km/h (2 Bft) 93,62 %
17.12.2016 05:08 3,1 C 3,3 C 1,1 C 92 % 0 lf 1033,7 hPa 0,0 l/m 0 min 0 min 0 W/m 12,6 km/h (3 Bft) 93,62 %
17.12.2016 05:10 3,1 C 2,8 C 1,1 C 92 % 0 lf 1033,8 hPa 0,0 l/m 0 min 0 min 0 W/m 12,6 km/h (3 Bft) 95,74 %
17.12.2016 05:12 3,0 C 2,8 C 1,1 C 92 % 0 lf 1033,7 hPa 0,0 l/m 0 min 0 min 0 W/m 10,5 km/h (2 Bft) 95,74 %
17.12.2016 05:14 3,0 C 2,8 C 1,1 C 92 % 0 lf 1033,7 hPa 0,0 l/m 0 min 0 min 0 W/m 8,4 km/h (2 Bft) 93,62 %
17.12.2016 05:16 3,0 C 2,8 C 1,1 C 92 % 0 lf 1033,7 hPa 0,0 l/m 0 min 0 min 0 W/m 12,6 km/h (3 Bft) 95,65 %
17.12.2016 05:18 2,9 C 2,8 C 1,1 C 92 % 0 lf 1033,8 hPa 0,0 l/m 0 min 0 min 0 W/m 6,3 km/h (2 Bft) 91,49 %
17.12.2016 05:20 2,9 C 2,8 C 1,1 C 92 % 0 lf 1033,7 hPa 0,0 l/m 0 min 0 min 0 W/m 14,6 km/h (3 Bft) 91,49 %
17.12.2016 05:22 2,9 C 2,8 C 1,1 C 92 % 0 lf 1033,8 hPa 0,0 l/m 0 min 0 min 0 W/m 12,6 km/h (3 Bft) 95,74 %
17.12.2016 05:24 2,9 C 2,8 C 1,1 C 92 % 0 lf 1033,8 hPa 0,0 l/m 0 min 0 min 0 W/m 10,5 km/h (2 Bft) 91,49 %
17.12.2016 05:26 2,9 C 2,8 C 0,6 C 92 % 0 lf 1033,8 hPa 0,0 l/m 0 min 0 min 0 W/m 8,4 km/h (2 Bft) 89,13 %
17.12.2016 05:28 2,8 C 2,8 C 0,6 C 92 % 0 lf 1033,8 hPa 0,0 l/m 0 min 0 min 0 W/m 8,4 km/h (2 Bft) 95,74 %
17.12.2016 05:30 2,8 C 2,8 C 0,6 C 92 % 0 lf 1033,8 hPa 0,0 l/m 0 min 0 min 0 W/m 6,3 km/h (2 Bft) 95,74 %
17.12.2016 05:32 2,8 C 2,8 C 0,6 C 92 % 0 lf 1033,9 hPa 0,0 l/m 0 min 0 min 0 W/m 8,4 km/h (2 Bft) 95,83 %
17.12.2016 05:34 2,8 C 2,8 C 0,6 C 92 % 0 lf 1033,9 hPa 0,0 l/m 0 min 0 min 0 W/m 8,4 km/h (2 Bft) 95,74 %
17.12.2016 05:36 2,7 C 2,8 C 0,6 C 92 % 0 lf 1033,9 hPa 0,0 l/m 0 min 0 min 0 W/m 10,5 km/h (2 Bft) 93,75 %
17.12.2016 05:38 2,7 C 2,8 C 0,6 C 92 % 0 lf 1033,9 hPa 0,0 l/m 0 min 0 min 0 W/m 10,5 km/h (2 Bft) 93,48 %
17.12.2016 05:40 2,7 C 2,8 C 0,6 C 92 % 0 lf 1033,9 hPa 0,0 l/m 0 min 0 min 0 W/m 10,5 km/h (2 Bft) 97,87 %
17.12.2016 05:42 2,6 C 2,8 C 0,6 C 92 % 0 lf 1033,9 hPa 0,0 l/m 0 min 0 min 0 W/m 8,4 km/h (2 Bft) 89,36 %
17.12.2016 05:44 2,6 C 2,8 C 0,6 C 92 % 0 lf 1033,9 hPa 0,0 l/m 0 min 0 min 0 W/m 10,5 km/h (2 Bft) 97,87 %
17.12.2016 05:46 2,6 C 2,8 C 0,6 C 92 % 0 lf 1033,9 hPa 0,0 l/m 0 min 0 min 0 W/m 10,5 km/h (2 Bft) 97,87 %
17.12.2016 05:48 2,6 C 2,8 C 0,6 C 92 % 0 lf 1033,9 hPa 0,0 l/m 0 min 0 min 0 W/m 10,5 km/h (2 Bft) 93,62 %
17.12.2016 05:50 2,6 C 2,8 C 0,6 C 92 % 0 lf 1034,0 hPa 0,0 l/m 0 min 0 min 0 W/m 10,5 km/h (2 Bft) 95,65 %
17.12.2016 05:52 2,6 C 2,2 C 0,6 C 92 % 0 lf 1033,9 hPa 0,0 l/m 0 min 0 min 0 W/m 8,4 km/h (2 Bft) 97,87 %
17.12.2016 05:54 2,5 C 2,2 C 0,6 C 92 % 0 lf 1033,9 hPa 0,0 l/m 0 min 0 min 0 W/m 6,3 km/h (2 Bft) 97,87 %
17.12.2016 05:56 2,5 C 2,2 C 0,6 C 92 % 0 lf 1034,0 hPa 0,0 l/m 0 min 0 min 0 W/m 10,5 km/h (2 Bft) 97,87 %
17.12.2016 05:58 2,4 C 2,2 C 0,6 C 92 % 0 lf 1033,9 hPa 0,0 l/m 0 min 0 min 0 W/m 8,4 km/h (2 Bft) 93,62 %
17.12.2016 06:00 2,4 C 2,2 C 0,6 C 92 % 0 lf 1033,9 hPa 0,0 l/m 0 min 0 min 0 W/m 6,3 km/h (2 Bft) 100,00 %
17.12.2016 06:02 2,4 C 2,2 C 0,6 C 92 % 0 lf 1034,0 hPa 0,0 l/m 0 min 0 min 0 W/m 8,4 km/h (2 Bft) 95,65 %
17.12.2016 06:06 2,4 C 2,2 C 0,6 C 92 % 0 lf 1034,1 hPa 0,0 l/m 0 min 0 min 0 W/m 8,4 km/h (2 Bft) 97,87 %
17.12.2016 06:08 2,4 C 2,2 C 0,6 C 92 % 0 lf 1034,1 hPa 0,0 l/m 0 min 0 min 0 W/m 8,4 km/h (2 Bft) 97,87 %
17.12.2016 06:10 2,4 C 2,2 C 0,6 C 92 % 0 lf 1034,1 hPa 0,0 l/m 0 min 0 min 5 W/m 8,4 km/h (2 Bft) 100,00 %
17.12.2016 06:12 2,3 C 2,2 C 0,6 C 92 % 0 lf 1034,1 hPa 0,0 l/m 0 min 0 min 5 W/m 8,4 km/h (2 Bft) 95,74 %
17.12.2016 06:14 2,3 C 2,2 C 0,6 C 92 % 0 lf 1034,2 hPa 0,0 l/m 0 min 0 min 5 W/m 8,4 km/h (2 Bft) 95,65 %
17.12.2016 06:16 2,3 C 2,2 C 0,0 C 92 % 0 lf 1034,2 hPa 0,0 l/m 0 min 0 min 5 W/m 8,4 km/h (2 Bft) 95,74 %
17.12.2016 06:18 2,3 C 2,2 C 0,0 C 92 % 0 lf 1034,2 hPa 0,0 l/m 0 min 0 min 5 W/m 10,5 km/h (2 Bft) 97,87 %
17.12.2016 06:20 2,3 C 2,2 C 0,0 C 92 % 0 lf 1034,1 hPa 0,0 l/m 0 min 0 min 5 W/m 12,6 km/h (3 Bft) 97,87 %
17.12.2016 06:22 2,3 C 2,2 C 0,6 C 93 % 0 lf 1034,1 hPa 0,0 l/m 0 min 0 min 5 W/m 8,4 km/h (2 Bft) 93,62 %
17.12.2016 06:24 2,3 C 2,2 C 0,6 C 93 % 0 lf 1034,1 hPa 0,0 l/m 0 min 0 min 5 W/m 12,6 km/h (3 Bft) 93,48 %
17.12.2016 06:26 2,2 C 2,2 C 0,6 C 93 % 0 lf 1034,2 hPa 0,0 l/m 0 min 0 min 5 W/m 12,6 km/h (3 Bft) 95,74 %
17.12.2016 06:28 2,2 C 2,2 C 0,0 C 92 % 0 lf 1034,2 hPa 0,0 l/m 0 min 0 min 5 W/m 8,4 km/h (2 Bft) 95,74 %
17.12.2016 06:30 2,2 C 2,2 C 0,6 C 92 % 0 lf 1034,2 hPa 0,0 l/m 0 min 0 min 5 W/m 8,4 km/h (2 Bft) 97,87 %
17.12.2016 06:32 2,2 C 2,2 C 0,0 C 93 % 0 lf 1034,2 hPa 0,0 l/m 0 min 0 min 5 W/m 8,4 km/h (2 Bft) 97,87 %
17.12.2016 06:34 2,2 C 2,2 C 0,0 C 93 % 0 lf 1034,2 hPa 0,0 l/m 0 min 0 min 5 W/m 8,4 km/h (2 Bft) 97,87 %
17.12.2016 06:36 2,2 C 2,2 C 0,6 C 93 % 0 lf 1034,2 hPa 0,0 l/m 0 min 0 min 5 W/m 12,6 km/h (3 Bft) 97,67 %
17.12.2016 06:38 2,2 C 2,2 C 0,6 C 93 % 0 lf 1034,2 hPa 0,0 l/m 0 min 0 min 5 W/m 10,5 km/h (2 Bft) 97,83 %
17.12.2016 06:40 2,2 C 2,2 C 0,6 C 93 % 0 lf 1034,2 hPa 0,0 l/m 0 min 0 min 5 W/m 10,5 km/h (2 Bft) 95,74 %
17.12.2016 06:42 2,2 C 2,2 C 0,6 C 93 % 0 lf 1034,2 hPa 0,0 l/m 0 min 0 min 5 W/m 10,5 km/h (2 Bft) 97,87 %
17.12.2016 06:44 2,1 C 2,2 C 0,0 C 93 % 0 lf 1034,2 hPa 0,0 l/m 0 min 0 min 5 W/m 6,3 km/h (2 Bft) 97,87 %
17.12.2016 06:46 2,1 C 2,2 C 0,0 C 93 % 0 lf 1034,2 hPa 0,0 l/m 0 min 0 min 5 W/m 8,4 km/h (2 Bft) 97,87 %
17.12.2016 06:48 2,1 C 2,2 C 0,0 C 93 % 0 lf 1034,3 hPa 0,0 l/m 0 min 0 min 5 W/m 8,4 km/h (2 Bft) 95,74 %
17.12.2016 06:50 2,1 C 2,2 C 0,0 C 93 % 0 lf 1034,4 hPa 0,0 l/m 0 min 0 min 5 W/m 10,5 km/h (2 Bft) 93,48 %
17.12.2016 06:52 2,1 C 2,2 C 0,0 C 93 % 0 lf 1034,4 hPa 0,0 l/m 0 min 0 min 5 W/m 8,4 km/h (2 Bft) 95,74 %
17.12.2016 06:54 2,1 C 2,2 C 0,0 C 93 % 0 lf 1034,4 hPa 0,0 l/m 0 min 0 min 5 W/m 8,4 km/h (2 Bft) 97,87 %
17.12.2016 06:56 2,1 C 2,2 C 0,0 C 93 % 0 lf 1034,4 hPa 0,0 l/m 0 min 0 min 5 W/m 12,6 km/h (3 Bft) 97,87 %
17.12.2016 06:58 2,0 C 2,2 C 0,0 C 93 % 0 lf 1034,5 hPa 0,0 l/m 0 min 0 min 5 W/m 8,4 km/h (2 Bft) 100,00 %
17.12.2016 07:00 2,0 C 2,2 C 0,0 C 93 % 0 lf 1034,4 hPa 0,0 l/m 0 min 0 min 5 W/m 10,5 km/h (2 Bft) 97,87 %
17.12.2016 07:02 2,0 C 2,2 C 0,0 C 93 % 0 lf 1034,5 hPa 0,0 l/m 0 min 0 min 5 W/m 8,4 km/h (2 Bft) 95,74 %
17.12.2016 07:04 2,0 C 2,2 C 0,0 C 93 % 0 lf 1034,5 hPa 0,0 l/m 0 min 0 min 5 W/m 10,5 km/h (2 Bft) 93,62 %
17.12.2016 07:06 2,0 C 2,2 C 0,0 C 93 % 0 lf 1034,5 hPa 0,0 l/m 0 min 0 min 5 W/m 8,4 km/h (2 Bft) 94,00 %
17.12.2016 07:08 2,0 C 2,2 C 0,6 C 93 % 0 lf 1034,5 hPa 0,0 l/m 0 min 0 min 5 W/m 8,4 km/h (2 Bft) 93,62 %
17.12.2016 07:10 2,0 C 2,2 C 0,6 C 93 % 0 lf 1034,5 hPa 0,0 l/m 0 min 0 min 5 W/m 10,5 km/h (2 Bft) 93,62 %
17.12.2016 07:12 2,0 C 2,2 C 0,6 C 93 % 0 lf 1034,5 hPa 0,0 l/m 0 min 0 min 5 W/m 10,5 km/h (2 Bft) 93,48 %
17.12.2016 07:14 2,0 C 2,2 C 0,6 C 93 % 0 lf 1034,5 hPa 0,0 l/m 0 min 0 min 5 W/m 12,6 km/h (3 Bft) 91,49 %
17.12.2016 07:16 2,0 C 2,2 C 0,6 C 93 % 0 lf 1034,5 hPa 0,0 l/m 0 min 0 min 5 W/m 8,4 km/h (2 Bft) 95,74 %
17.12.2016 07:18 2,0 C 2,2 C 0,6 C 93 % 0 lf 1034,5 hPa 0,0 l/m 0 min 0 min 5 W/m 10,5 km/h (2 Bft) 95,74 %
17.12.2016 07:20 2,0 C 2,2 C 0,6 C 93 % 0 lf 1034,6 hPa 0,0 l/m 0 min 0 min 5 W/m 8,4 km/h (2 Bft) 95,74 %
17.12.2016 07:22 2,0 C 2,2 C 0,6 C 93 % 0 lf 1034,7 hPa 0,0 l/m 0 min 0 min 5 W/m 8,4 km/h (2 Bft) 95,65 %
17.12.2016 07:24 2,0 C 2,2 C 0,6 C 93 % 0 lf 1034,7 hPa 0,0 l/m 0 min 0 min 5 W/m 8,4 km/h (2 Bft) 93,62 %
17.12.2016 07:26 2,0 C 2,2 C 1,1 C 94 % 0 lf 1034,8 hPa 0,0 l/m 0 min 0 min 5 W/m 10,5 km/h (2 Bft) 93,62 %
17.12.2016 07:28 2,0 C 2,2 C 1,1 C 94 % 0 lf 1034,9 hPa 0,0 l/m 0 min 0 min 5 W/m 8,4 km/h (2 Bft) 95,74 %
17.12.2016 07:30 2,1 C 2,2 C 1,1 C 94 % 0 lf 1034,8 hPa 0,0 l/m 0 min 0 min 5 W/m 8,4 km/h (2 Bft) 91,49 %
17.12.2016 07:32 2,1 C 2,2 C 1,1 C 94 % 0 lf 1034,8 hPa 0,0 l/m 0 min 0 min 5 W/m 8,4 km/h (2 Bft) 96,23 %
17.12.2016 07:34 2,1 C 2,2 C 0,6 C 94 % 0 lf 1034,8 hPa 0,0 l/m 0 min 0 min 5 W/m 8,4 km/h (2 Bft) 97,83 %
17.12.2016 07:36 2,1 C 2,2 C 0,6 C 94 % 0 lf 1034,8 hPa 0,0 l/m 0 min 0 min 5 W/m 10,5 km/h (2 Bft) 97,37 %
17.12.2016 07:38 2,1 C 2,2 C 0,6 C 94 % 0 lf 1034,8 hPa 0,0 l/m 0 min 0 min 5 W/m 12,6 km/h (3 Bft) 97,87 %
17.12.2016 07:40 2,1 C 2,2 C 1,1 C 94 % 0 lf 1034,9 hPa 0,0 l/m 0 min 0 min 5 W/m 10,5 km/h (2 Bft) 91,49 %
17.12.2016 07:42 2,1 C 2,2 C 1,1 C 94 % 0 lf 1034,9 hPa 0,0 l/m 0 min 0 min 5 W/m 8,4 km/h (2 Bft) 95,74 %
17.12.2016 07:44 2,1 C 2,2 C 1,1 C 94 % 0 lf 1034,8 hPa 0,0 l/m 0 min 0 min 5 W/m 8,4 km/h (2 Bft) 97,87 %
17.12.2016 07:46 2,1 C 2,2 C 1,1 C 94 % 0 lf 1034,9 hPa 0,0 l/m 0 min 0 min 5 W/m 8,4 km/h (2 Bft) 97,87 %
17.12.2016 07:48 2,1 C 2,2 C 1,1 C 94 % 0 lf 1034,8 hPa 0,0 l/m 0 min 0 min 5 W/m 10,5 km/h (2 Bft) 93,48 %
17.12.2016 07:50 2,1 C 2,2 C 1,1 C 94 % 0 lf 1034,9 hPa 0,0 l/m 0 min 0 min 5 W/m 8,4 km/h (2 Bft) 97,87 %
17.12.2016 07:52 2,1 C 2,2 C 1,1 C 94 % 0 lf 1034,9 hPa 0,0 l/m 0 min 0 min 5 W/m 8,4 km/h (2 Bft) 97,87 %
17.12.2016 07:54 2,1 C 2,2 C 1,1 C 94 % 0 lf 1034,9 hPa 0,0 l/m 0 min 0 min 5 W/m 8,4 km/h (2 Bft) 100,00 %
17.12.2016 07:56 2,1 C 2,2 C 1,1 C 94 % 0 lf 1035,0 hPa 0,0 l/m 0 min 0 min 5 W/m 8,4 km/h (2 Bft) 97,87 %
17.12.2016 07:58 2,1 C 2,2 C 1,1 C 94 % 0 lf 1035,0 hPa 0,0 l/m 0 min 0 min 5 W/m 6,3 km/h (2 Bft) 100,00 %
17.12.2016 08:00 2,1 C 2,2 C 1,1 C 94 % 0 lf 1035,0 hPa 0,0 l/m 0 min 0 min 5 W/m 8,4 km/h (2 Bft) 97,87 %
17.12.2016 08:02 2,1 C 2,2 C 1,1 C 94 % 0 lf 1035,0 hPa 0,0 l/m 0 min 0 min 5 W/m 6,3 km/h (2 Bft) 97,92 %
17.12.2016 08:04 2,1 C 2,2 C 1,1 C 94 % 0 lf 1035,0 hPa 0,0 l/m 0 min 0 min 5 W/m 6,3 km/h (2 Bft) 97,87 %
17.12.2016 08:06 2,1 C 2,2 C 1,1 C 94 % 0 lf 1035,1 hPa 0,0 l/m 0 min 0 min 5 W/m 6,3 km/h (2 Bft) 97,87 %
17.12.2016 08:08 2,1 C 2,2 C 1,1 C 94 % 0 lf 1035,1 hPa 0,0 l/m 0 min 0 min 5 W/m 4,2 km/h (1 Bft) 100,00 %
17.12.2016 08:10 2,1 C 2,8 C 1,1 C 94 % 0 lf 1035,1 hPa 0,0 l/m 0 min 0 min 5 W/m 6,3 km/h (2 Bft) 100,00 %
17.12.2016 08:12 2,1 C 2,2 C 1,1 C 94 % 0 lf 1035,1 hPa 0,0 l/m 0 min 0 min 5 W/m 4,2 km/h (1 Bft) 97,92 %
17.12.2016 08:14 2,1 C 2,2 C 1,1 C 94 % 0 lf 1035,1 hPa 0,0 l/m 0 min 0 min 5 W/m 6,3 km/h (2 Bft) 100,00 %
17.12.2016 08:16 2,1 C 2,2 C 1,1 C 94 % 0 lf 1035,2 hPa 0,0 l/m 0 min 0 min 5 W/m 6,3 km/h (2 Bft) 100,00 %
17.12.2016 08:18 2,1 C 2,2 C 1,1 C 94 % 0 lf 1035,2 hPa 0,0 l/m 0 min 0 min 5 W/m 4,2 km/h (1 Bft) 97,87 %
17.12.2016 08:20 2,1 C 2,8 C 1,1 C 94 % 0 lf 1035,2 hPa 0,0 l/m 0 min 0 min 5 W/m 2,1 km/h (1 Bft) 100,00 %
17.12.2016 08:22 2,1 C 2,8 C 1,1 C 94 % 0 lf 1035,2 hPa 0,0 l/m 0 min 0 min 5 W/m 8,4 km/h (2 Bft) 100,00 %
17.12.2016 08:24 2,1 C 2,8 C 1,1 C 94 % 0 lf 1035,3 hPa 0,0 l/m 0 min 0 min 5 W/m 8,4 km/h (2 Bft) 97,87 %
17.12.2016 08:26 2,1 C 2,8 C 1,1 C 94 % 0 lf 1035,4 hPa 0,0 l/m 0 min 0 min 5 W/m 4,2 km/h (1 Bft) 100,00 %
17.12.2016 08:28 2,1 C 2,8 C 1,1 C 94 % 0 lf 1035,5 hPa 0,0 l/m 0 min 0 min 5 W/m 2,1 km/h (1 Bft) 97,87 %
17.12.2016 08:30 2,2 C 2,8 C 1,1 C 94 % 0 lf 1035,6 hPa 0,0 l/m 0 min 0 min 5 W/m 0,0 km/h (0 Bft) 95,74 %
17.12.2016 08:32 2,2 C 2,8 C 1,1 C 94 % 0 lf 1035,6 hPa 0,0 l/m 0 min 0 min 5 W/m 0,0 km/h (0 Bft) 93,75 %
17.12.2016 08:34 2,1 C 2,8 C 1,1 C 94 % 0 lf 1035,7 hPa 0,0 l/m 0 min 0 min 6 W/m 2,1 km/h (1 Bft) 100,00 %
17.12.2016 08:36 2,2 C 2,8 C 1,1 C 94 % 0 lf 1035,6 hPa 0,0 l/m 0 min 0 min 7 W/m 4,2 km/h (1 Bft) 97,87 %
17.12.2016 08:38 2,2 C 2,8 C 1,1 C 94 % 0 lf 1035,6 hPa 0,0 l/m 0 min 0 min 7 W/m 4,2 km/h (1 Bft) 95,74 %
17.12.2016 08:40 2,2 C 2,8 C 1,1 C 94 % 0 lf 1035,7 hPa 0,0 l/m 0 min 0 min 7 W/m 4,2 km/h (1 Bft) 93,62 %
17.12.2016 08:42 2,2 C 2,8 C 1,1 C 94 % 0 lf 1035,7 hPa 0,0 l/m 0 min 0 min 7 W/m 4,2 km/h (1 Bft) 97,87 %
17.12.2016 08:44 2,2 C 2,8 C 1,1 C 94 % 0 lf 1035,7 hPa 0,0 l/m 0 min 0 min 9 W/m 6,3 km/h (2 Bft) 93,48 %
17.12.2016 08:46 2,2 C 2,8 C 1,1 C 94 % 0 lf 1035,7 hPa 0,0 l/m 0 min 0 min 9 W/m 6,3 km/h (2 Bft) 98,11 %
17.12.2016 08:48 2,2 C 2,8 C 1,1 C 94 % 0 lf 1035,8 hPa 0,0 l/m 0 min 0 min 9 W/m 6,3 km/h (2 Bft) 95,74 %
17.12.2016 08:50 2,2 C 2,8 C 1,7 C 94 % 0 lf 1035,7 hPa 0,0 l/m 0 min 0 min 10 W/m 6,3 km/h (2 Bft) 100,00 %
17.12.2016 08:52 2,2 C 2,8 C 1,7 C 94 % 0 lf 1035,8 hPa 0,0 l/m 0 min 0 min 11 W/m 6,3 km/h (2 Bft) 91,49 %
17.12.2016 08:54 2,2 C 2,8 C 1,1 C 94 % 0 lf 1035,8 hPa 0,0 l/m 0 min 0 min 11 W/m 4,2 km/h (1 Bft) 95,74 %
17.12.2016 08:56 2,2 C 2,8 C 1,1 C 94 % 0 lf 1035,9 hPa 0,0 l/m 0 min 0 min 11 W/m 6,3 km/h (2 Bft) 95,65 %
17.12.2016 08:58 2,2 C 2,8 C 1,7 C 94 % 0 lf 1035,8 hPa 0,0 l/m 0 min 0 min 12 W/m 6,3 km/h (2 Bft) 95,74 %
17.12.2016 09:00 2,2 C 2,8 C 1,7 C 94 % 0 lf 1035,9 hPa 0,0 l/m 0 min 0 min 12 W/m 6,3 km/h (2 Bft) 91,49 %
17.12.2016 09:02 2,3 C 2,8 C 1,7 C 94 % 0 lf 1035,8 hPa 0,0 l/m 0 min 0 min 13 W/m 8,4 km/h (2 Bft) 93,02 %
17.12.2016 09:04 2,3 C 2,8 C 1,7 C 94 % 0 lf 1035,8 hPa 0,0 l/m 0 min 0 min 15 W/m 6,3 km/h (2 Bft) 91,49 %
17.12.2016 09:06 2,3 C 2,8 C 1,7 C 94 % 0 lf 1035,8 hPa 0,0 l/m 0 min 0 min 16 W/m 6,3 km/h (2 Bft) 94,00 %
17.12.2016 09:08 2,3 C 2,8 C 1,7 C 94 % 0 lf 1035,9 hPa 0,0 l/m 0 min 0 min 16 W/m 8,4 km/h (2 Bft) 91,30 %
17.12.2016 09:10 2,3 C 2,8 C 1,7 C 94 % 0 lf 1035,9 hPa 0,0 l/m 0 min 0 min 17 W/m 6,3 km/h (2 Bft) 91,49 %
17.12.2016 09:12 2,3 C 2,8 C 1,7 C 94 % 0 lf 1035,9 hPa 0,0 l/m 0 min 0 min 18 W/m 8,4 km/h (2 Bft) 93,62 %
17.12.2016 09:14 2,3 C 2,8 C 1,7 C 94 % 0 lf 1035,9 hPa 0,0 l/m 0 min 0 min 18 W/m 6,3 km/h (2 Bft) 91,49 %
17.12.2016 09:16 2,3 C 2,8 C 1,7 C 94 % 0 lf 1035,9 hPa 0,0 l/m 0 min 0 min 19 W/m 6,3 km/h (2 Bft) 93,62 %
17.12.2016 09:18 2,3 C 2,8 C 1,7 C 94 % 0 lf 1036,0 hPa 0,0 l/m 0 min 0 min 22 W/m 8,4 km/h (2 Bft) 87,23 %
17.12.2016 09:20 2,3 C 2,8 C 1,7 C 94 % 0 lf 1036,0 hPa 0,0 l/m 0 min 0 min 24 W/m 6,3 km/h (2 Bft) 91,30 %
17.12.2016 09:22 2,4 C 2,8 C 1,7 C 94 % 0 lf 1036,0 hPa 0,0 l/m 0 min 0 min 25 W/m 8,4 km/h (2 Bft) 95,74 %
17.12.2016 09:24 2,4 C 3,3 C 1,7 C 94 % 0 lf 1036,1 hPa 0,0 l/m 0 min 0 min 26 W/m 8,4 km/h (2 Bft) 95,74 %
17.12.2016 09:26 2,4 C 3,3 C 1,7 C 94 % 0 lf 1036,2 hPa 0,0 l/m 0 min 0 min 27 W/m 8,4 km/h (2 Bft) 97,87 %
17.12.2016 09:28 2,4 C 3,3 C 2,2 C 94 % 0 lf 1036,2 hPa 0,0 l/m 0 min 0 min 30 W/m 10,5 km/h (2 Bft) 95,74 %
17.12.2016 09:30 2,4 C 3,3 C 2,2 C 94 % 0 lf 1036,2 hPa 0,0 l/m 0 min 0 min 32 W/m 10,5 km/h (2 Bft) 97,87 %
17.12.2016 09:32 2,4 C 3,3 C 2,2 C 94 % 0 lf 1036,3 hPa 0,0 l/m 0 min 0 min 32 W/m 8,4 km/h (2 Bft) 97,87 %
17.12.2016 09:34 2,5 C 3,3 C 2,2 C 94 % 0 lf 1036,2 hPa 0,0 l/m 0 min 0 min 32 W/m 10,5 km/h (2 Bft) 95,74 %
17.12.2016 09:36 2,5 C 3,3 C 2,2 C 95 % 0 lf 1036,3 hPa 0,0 l/m 0 min 0 min 34 W/m 8,4 km/h (2 Bft) 97,87 %
17.12.2016 09:38 2,5 C 3,3 C 2,2 C 95 % 0 lf 1036,3 hPa 0,0 l/m 0 min 0 min 37 W/m 8,4 km/h (2 Bft) 93,62 %
17.12.2016 09:40 2,6 C 3,3 C 2,2 C 95 % 0 lf 1036,3 hPa 0,0 l/m 0 min 0 min 39 W/m 8,4 km/h (2 Bft) 93,62 %
17.12.2016 09:42 2,6 C 3,3 C 2,2 C 95 % 0 lf 1036,4 hPa 0,0 l/m 0 min 0 min 41 W/m 8,4 km/h (2 Bft) 95,74 %
17.12.2016 09:44 2,6 C 3,3 C 2,2 C 95 % 0 lf 1036,3 hPa 0,0 l/m 0 min 0 min 41 W/m 10,5 km/h (2 Bft) 97,83 %
17.12.2016 09:46 2,6 C 3,3 C 2,2 C 95 % 0 lf 1036,3 hPa 0,0 l/m 0 min 0 min 43 W/m 6,3 km/h (2 Bft) 98,11 %
17.12.2016 09:48 2,7 C 3,3 C 2,2 C 95 % 0 lf 1036,3 hPa 0,0 l/m 0 min 0 min 44 W/m 8,4 km/h (2 Bft) 97,87 %
17.12.2016 09:50 2,7 C 3,3 C 2,2 C 95 % 0 lf 1036,3 hPa 0,0 l/m 0 min 0 min 45 W/m 8,4 km/h (2 Bft) 93,62 %
17.12.2016 09:52 2,7 C 3,3 C 2,2 C 94 % 0 lf 1036,4 hPa 0,0 l/m 0 min 0 min 46 W/m 8,4 km/h (2 Bft) 95,74 %
17.12.2016 09:54 2,7 C 3,3 C 2,2 C 94 % 0 lf 1036,4 hPa 0,0 l/m 0 min 0 min 47 W/m 8,4 km/h (2 Bft) 97,83 %
17.12.2016 09:56 2,7 C 3,3 C 2,2 C 94 % 0 lf 1036,4 hPa 0,0 l/m 0 min 0 min 46 W/m 8,4 km/h (2 Bft) 93,62 %
17.12.2016 09:58 2,8 C 3,3 C 2,2 C 94 % 0 lf 1036,4 hPa 0,0 l/m 0 min 0 min 47 W/m 6,3 km/h (2 Bft) 97,87 %
17.12.2016 10:00 2,8 C 3,9 C 2,2 C 94 % 0 lf 1036,5 hPa 0,0 l/m 0 min 0 min 50 W/m 6,3 km/h (2 Bft) 95,12 %
17.12.2016 10:02 2,8 C 3,9 C 2,2 C 94 % 0 lf 1036,4 hPa 0,0 l/m 0 min 0 min 54 W/m 10,5 km/h (2 Bft) 92,86 %
17.12.2016 10:04 2,8 C 3,9 C 2,2 C 94 % 0 lf 1036,4 hPa 0,0 l/m 0 min 0 min 58 W/m 8,4 km/h (2 Bft) 93,33 %
17.12.2016 10:06 2,8 C 3,9 C 2,2 C 95 % 0 lf 1036,4 hPa 0,0 l/m 0 min 0 min 64 W/m 6,3 km/h (2 Bft) 94,29 %
17.12.2016 10:08 2,8 C 3,9 C 2,2 C 95 % 0 lf 1036,4 hPa 0,0 l/m 0 min 0 min 82 W/m 8,4 km/h (2 Bft) 93,62 %
17.12.2016 10:10 2,9 C 3,9 C 2,2 C 95 % 0 lf 1036,4 hPa 0,0 l/m 0 min 0 min 86 W/m 6,3 km/h (2 Bft) 97,87 %
17.12.2016 10:12 2,9 C 4,4 C 2,8 C 95 % 0 lf 1036,5 hPa 0,0 l/m 2 min 0 min 124 W/m 8,4 km/h (2 Bft) 95,65 %
17.12.2016 10:14 2,9 C 4,4 C 2,8 C 95 % 0 lf 1036,5 hPa 0,0 l/m 2 min 0 min 139 W/m 6,3 km/h (2 Bft) 89,36 %
17.12.2016 10:16 2,9 C 4,4 C 2,8 C 95 % 0 lf 1036,5 hPa 0,0 l/m 2 min 0 min 150 W/m 8,4 km/h (2 Bft) 95,74 %
17.12.2016 10:18 2,9 C 4,4 C 3,3 C 94 % 0 lf 1036,6 hPa 0,0 l/m 2 min 0 min 131 W/m 8,4 km/h (2 Bft) 95,74 %
17.12.2016 10:20 3,0 C 4,4 C 3,3 C 94 % 0 lf 1036,6 hPa 0,0 l/m 2 min 0 min 102 W/m 8,4 km/h (2 Bft) 97,87 %
17.12.2016 10:22 3,1 C 4,4 C 3,3 C 94 % 0 lf 1036,6 hPa 0,0 l/m 0 min 0 min 92 W/m 8,4 km/h (2 Bft) 95,74 %
17.12.2016 10:24 3,1 C 4,4 C 2,8 C 94 % 0 lf 1036,7 hPa 0,0 l/m 0 min 0 min 92 W/m 12,6 km/h (3 Bft) 95,65 %
17.12.2016 10:26 3,1 C 4,4 C 2,8 C 94 % 0 lf 1036,7 hPa 0,0 l/m 0 min 0 min 85 W/m 10,5 km/h (2 Bft) 93,62 %
17.12.2016 10:28 3,2 C 4,4 C 2,8 C 95 % 0 lf 1036,7 hPa 0,0 l/m 0 min 0 min 71 W/m 8,4 km/h (2 Bft) 97,87 %
17.12.2016 10:30 3,2 C 4,4 C 2,8 C 95 % 0 lf 1036,7 hPa 0,0 l/m 0 min 0 min 69 W/m 8,4 km/h (2 Bft) 97,87 %
17.12.2016 10:32 3,2 C 4,4 C 2,8 C 94 % 0 lf 1036,8 hPa 0,0 l/m 0 min 0 min 106 W/m 10,5 km/h (2 Bft) 93,62 %
17.12.2016 10:34 3,2 C 4,4 C 2,8 C 94 % 0 lf 1036,7 hPa 0,0 l/m 2 min 0 min 132 W/m 10,5 km/h (2 Bft) 91,49 %
17.12.2016 10:36 3,2 C 4,4 C 2,8 C 94 % 0 lf 1036,7 hPa 0,0 l/m 2 min 0 min 139 W/m 8,4 km/h (2 Bft) 95,65 %
17.12.2016 10:38 3,3 C 5,0 C 2,8 C 94 % 0 lf 1036,7 hPa 0,0 l/m 2 min 0 min 139 W/m 8,4 km/h (2 Bft) 97,87 %
17.12.2016 10:40 3,3 C 5,0 C 2,8 C 94 % 0 lf 1036,7 hPa 0,0 l/m 2 min 0 min 144 W/m 6,3 km/h (2 Bft) 95,74 %
17.12.2016 10:42 3,3 C 5,0 C 2,8 C 94 % 0 lf 1036,8 hPa 0,0 l/m 2 min 0 min 144 W/m 8,4 km/h (2 Bft) 95,74 %
17.12.2016 10:44 3,4 C 5,0 C 3,3 C 94 % 0 lf 1036,8 hPa 0,0 l/m 2 min 0 min 141 W/m 12,6 km/h (3 Bft) 97,87 %
17.12.2016 10:46 3,4 C 5,0 C 3,3 C 94 % 0 lf 1036,7 hPa 0,0 l/m 2 min 0 min 142 W/m 10,5 km/h (2 Bft) 91,30 %
17.12.2016 10:48 3,4 C 5,0 C 3,3 C 94 % 0 lf 1036,8 hPa 0,0 l/m 2 min 0 min 145 W/m 10,5 km/h (2 Bft) 95,74 %
17.12.2016 10:50 3,5 C 5,0 C 3,3 C 94 % 0 lf 1036,8 hPa 0,0 l/m 2 min 0 min 148 W/m 12,6 km/h (3 Bft) 95,74 %
17.12.2016 10:52 3,5 C 5,0 C 3,3 C 94 % 0 lf 1036,8 hPa 0,0 l/m 2 min 0 min 149 W/m 10,5 km/h (2 Bft) 97,87 %
17.12.2016 10:54 3,6 C 5,0 C 3,3 C 94 % 0 lf 1036,7 hPa 0,0 l/m 2 min 0 min 151 W/m 12,6 km/h (3 Bft) 97,87 %
17.12.2016 10:56 3,6 C 5,6 C 3,3 C 94 % 0 lf 1036,8 hPa 0,0 l/m 2 min 0 min 153 W/m 10,5 km/h (2 Bft) 93,62 %
17.12.2016 10:58 3,7 C 5,6 C 3,3 C 94 % 0 lf 1036,7 hPa 0,0 l/m 2 min 0 min 154 W/m 10,5 km/h (2 Bft) 97,83 %
17.12.2016 11:00 3,7 C 5,6 C 3,3 C 94 % 0 lf 1036,7 hPa 0,0 l/m 2 min 0 min 157 W/m 10,5 km/h (2 Bft) 97,83 %
17.12.2016 11:02 3,8 C 5,6 C 3,3 C 94 % 0 lf 1036,8 hPa 0,0 l/m 2 min 0 min 158 W/m 12,6 km/h (3 Bft) 95,74 %
17.12.2016 11:04 3,8 C 5,6 C 3,3 C 94 % 0 lf 1036,8 hPa 0,0 l/m 2 min 0 min 160 W/m 10,5 km/h (2 Bft) 91,49 %
17.12.2016 11:06 3,8 C 5,6 C 3,3 C 94 % 0 lf 1036,7 hPa 0,0 l/m 2 min 0 min 160 W/m 10,5 km/h (2 Bft) 91,49 %
17.12.2016 11:08 3,9 C 5,6 C 3,3 C 94 % 0 lf 1036,7 hPa 0,0 l/m 2 min 0 min 159 W/m 10,5 km/h (2 Bft) 97,87 %
17.12.2016 11:10 3,9 C 6,1 C 3,3 C 94 % 0 lf 1036,7 hPa 0,0 l/m 2 min 0 min 159 W/m 12,6 km/h (3 Bft) 95,65 %
17.12.2016 11:12 4,0 C 6,1 C 3,3 C 94 % 0 lf 1036,7 hPa 0,0 l/m 2 min 0 min 157 W/m 10,5 km/h (2 Bft) 97,87 %
17.12.2016 11:14 4,1 C 6,7 C 3,3 C 94 % 0 lf 1036,7 hPa 0,0 l/m 2 min 0 min 153 W/m 10,5 km/h (2 Bft) 95,74 %
17.12.2016 11:16 4,1 C 6,7 C 3,3 C 94 % 0 lf 1036,7 hPa 0,0 l/m 2 min 0 min 146 W/m 10,5 km/h (2 Bft) 95,74 %
17.12.2016 11:18 4,2 C 7,2 C 3,9 C 93 % 0 lf 1036,7 hPa 0,0 l/m 2 min 0 min 154 W/m 8,4 km/h (2 Bft) 97,87 %
17.12.2016 11:20 4,2 C 7,8 C 3,9 C 93 % 0 lf 1036,6 hPa 0,0 l/m 2 min 0 min 162 W/m 10,5 km/h (2 Bft) 97,87 %
17.12.2016 11:22 4,3 C 7,8 C 3,9 C 93 % 0 lf 1036,6 hPa 0,0 l/m 2 min 0 min 157 W/m 10,5 km/h (2 Bft) 100,00 %
17.12.2016 11:24 4,3 C 7,2 C 3,9 C 93 % 0 lf 1036,6 hPa 0,0 l/m 2 min 0 min 145 W/m 10,5 km/h (2 Bft) 97,87 %
17.12.2016 11:26 4,4 C 7,2 C 3,9 C 93 % 0 lf 1036,6 hPa 0,0 l/m 2 min 0 min 147 W/m 12,6 km/h (3 Bft) 97,87 %
17.12.2016 11:28 4,4 C 7,2 C 3,9 C 93 % 0 lf 1036,6 hPa 0,0 l/m 2 min 0 min 145 W/m 12,6 km/h (3 Bft) 95,74 %
17.12.2016 11:30 4,5 C 7,8 C 3,9 C 93 % 0 lf 1036,6 hPa 0,0 l/m 2 min 0 min 158 W/m 10,5 km/h (2 Bft) 95,74 %
17.12.2016 11:32 4,6 C 8,3 C 3,9 C 93 % 0 lf 1036,6 hPa 0,0 l/m 2 min 0 min 185 W/m 8,4 km/h (2 Bft) 91,49 %
17.12.2016 11:34 4,6 C 8,3 C 3,9 C 93 % 0 lf 1036,7 hPa 0,0 l/m 2 min 0 min 195 W/m 10,5 km/h (2 Bft) 97,83 %
17.12.2016 11:36 4,7 C 8,3 C 4,4 C 93 % 0 lf 1036,7 hPa 0,0 l/m 2 min 0 min 176 W/m 8,4 km/h (2 Bft) 97,87 %
17.12.2016 11:38 4,7 C 8,3 C 4,4 C 93 % 0 lf 1036,6 hPa 0,0 l/m 2 min 0 min 163 W/m 6,3 km/h (2 Bft) 95,74 %
17.12.2016 11:40 4,8 C 8,3 C 4,4 C 93 % 0 lf 1036,5 hPa 0,0 l/m 2 min 0 min 149 W/m 6,3 km/h (2 Bft) 95,74 %
17.12.2016 11:42 4,9 C 8,3 C 4,4 C 93 % 0 lf 1036,5 hPa 0,0 l/m 2 min 0 min 149 W/m 10,5 km/h (2 Bft) 95,74 %
17.12.2016 11:44 4,9 C 8,3 C 4,4 C 92 % 0 lf 1036,5 hPa 0,0 l/m 2 min 0 min 152 W/m 10,5 km/h (2 Bft) 97,83 %
17.12.2016 11:46 4,9 C 8,3 C 4,4 C 92 % 0 lf 1036,5 hPa 0,0 l/m 2 min 0 min 172 W/m 6,3 km/h (2 Bft) 97,87 %
17.12.2016 11:48 5,1 C 8,9 C 4,4 C 92 % 0 lf 1036,5 hPa 0,0 l/m 2 min 0 min 193 W/m 10,5 km/h (2 Bft) 97,87 %
17.12.2016 11:50 5,1 C 8,3 C 4,4 C 92 % 0 lf 1036,4 hPa 0,0 l/m 2 min 0 min 202 W/m 10,5 km/h (2 Bft) 93,62 %
17.12.2016 11:52 5,2 C 7,8 C 4,4 C 92 % 0 lf 1036,5 hPa 0,0 l/m 2 min 0 min 183 W/m 12,6 km/h (3 Bft) 97,87 %
17.12.2016 11:54 5,2 C 7,8 C 4,4 C 92 % 0 lf 1036,4 hPa 0,0 l/m 2 min 0 min 174 W/m 8,4 km/h (2 Bft) 97,14 %
17.12.2016 11:56 5,3 C 8,9 C 4,4 C 92 % 0 lf 1036,5 hPa 0,0 l/m 2 min 0 min 195 W/m 8,4 km/h (2 Bft) 98,36 %
17.12.2016 11:58 5,3 C 9,4 C 4,4 C 92 % 0 lf 1036,5 hPa 0,0 l/m 2 min 0 min 172 W/m 8,4 km/h (2 Bft) 97,87 %
17.12.2016 12:00 5,4 C 8,3 C 4,4 C 91 % 0 lf 1036,5 hPa 0,0 l/m 0 min 0 min 112 W/m 8,4 km/h (2 Bft) 93,62 %
17.12.2016 12:02 5,4 C 7,8 C 4,4 C 91 % 0 lf 1036,5 hPa 0,0 l/m 0 min 0 min 100 W/m 6,3 km/h (2 Bft) 95,74 %
17.12.2016 12:06 5,5 C 7,2 C 5,0 C 91 % 0 lf 1036,4 hPa 0,0 l/m 0 min 0 min 118 W/m 12,6 km/h (3 Bft) 97,89 %
17.12.2016 12:08 5,5 C 7,2 C 5,0 C 91 % 0 lf 1036,4 hPa 0,0 l/m 0 min 0 min 140 W/m 10,5 km/h (2 Bft) 95,65 %
17.12.2016 12:10 5,6 C 7,2 C 5,0 C 91 % 0 lf 1036,4 hPa 0,0 l/m 2 min 0 min 161 W/m 10,5 km/h (2 Bft) 97,87 %
17.12.2016 12:12 5,6 C 7,8 C 5,0 C 90 % 0 lf 1036,4 hPa 0,0 l/m 0 min 0 min 132 W/m 8,4 km/h (2 Bft) 95,74 %
17.12.2016 12:14 5,6 C 7,2 C 5,0 C 90 % 0 lf 1036,4 hPa 0,0 l/m 0 min 0 min 126 W/m 12,6 km/h (3 Bft) 95,74 %
17.12.2016 12:16 5,6 C 7,2 C 5,0 C 90 % 0 lf 1036,4 hPa 0,0 l/m 0 min 0 min 127 W/m 10,5 km/h (2 Bft) 95,74 %
17.12.2016 12:18 5,7 C 7,2 C 5,0 C 90 % 0 lf 1036,4 hPa 0,0 l/m 0 min 0 min 117 W/m 10,5 km/h (2 Bft) 95,74 %
17.12.2016 12:20 5,7 C 7,2 C 5,0 C 90 % 0 lf 1036,4 hPa 0,0 l/m 0 min 0 min 109 W/m 8,4 km/h (2 Bft) 93,48 %
17.12.2016 12:22 5,7 C 7,2 C 5,6 C 90 % 0 lf 1036,4 hPa 0,0 l/m 0 min 0 min 104 W/m 8,4 km/h (2 Bft) 95,74 %
17.12.2016 12:24 5,7 C 7,2 C 5,6 C 90 % 0 lf 1036,4 hPa 0,0 l/m 0 min 0 min 96 W/m 10,5 km/h (2 Bft) 95,74 %
17.12.2016 12:26 5,7 C 7,2 C 5,6 C 90 % 0 lf 1036,4 hPa 0,0 l/m 0 min 0 min 88 W/m 8,4 km/h (2 Bft) 95,74 %
17.12.2016 12:28 5,8 C 7,2 C 5,6 C 90 % 0 lf 1036,4 hPa 0,0 l/m 0 min 0 min 84 W/m 6,3 km/h (2 Bft) 95,74 %
17.12.2016 12:30 5,8 C 7,2 C 5,6 C 89 % 0 lf 1036,4 hPa 0,0 l/m 0 min 0 min 91 W/m 10,5 km/h (2 Bft) 93,62 %
17.12.2016 12:32 5,8 C 7,2 C 5,6 C 89 % 0 lf 1036,4 hPa 0,0 l/m 0 min 0 min 102 W/m 14,6 km/h (3 Bft) 95,65 %
17.12.2016 12:34 5,8 C 7,2 C 5,6 C 89 % 0 lf 1036,4 hPa 0,0 l/m 0 min 0 min 112 W/m 14,6 km/h (3 Bft) 97,87 %
17.12.2016 12:36 5,8 C 7,2 C 5,6 C 89 % 0 lf 1036,4 hPa 0,0 l/m 0 min 0 min 110 W/m 12,6 km/h (3 Bft) 95,74 %
17.12.2016 12:38 5,8 C 7,2 C 5,6 C 89 % 0 lf 1036,4 hPa 0,0 l/m 0 min 0 min 107 W/m 8,4 km/h (2 Bft) 95,74 %
17.12.2016 12:40 5,8 C 7,2 C 5,6 C 89 % 0 lf 1036,4 hPa 0,0 l/m 0 min 0 min 102 W/m 6,3 km/h (2 Bft) 93,62 %
17.12.2016 12:42 5,9 C 7,2 C 6,1 C 89 % 0 lf 1036,5 hPa 0,0 l/m 0 min 0 min 98 W/m 8,4 km/h (2 Bft) 93,48 %
17.12.2016 12:44 5,9 C 7,2 C 6,1 C 89 % 0 lf 1036,5 hPa 0,0 l/m 0 min 0 min 99 W/m 10,5 km/h (2 Bft) 95,74 %
17.12.2016 12:46 5,9 C 7,2 C 6,1 C 89 % 0 lf 1036,5 hPa 0,0 l/m 0 min 0 min 110 W/m 12,6 km/h (3 Bft) 93,62 %
17.12.2016 12:48 5,9 C 7,2 C 6,1 C 89 % 0 lf 1036,5 hPa 0,0 l/m 0 min 0 min 113 W/m 12,6 km/h (3 Bft) 93,62 %
17.12.2016 12:50 6,0 C 7,2 C 6,1 C 89 % 0 lf 1036,4 hPa 0,0 l/m 0 min 0 min 109 W/m 8,4 km/h (2 Bft) 93,62 %
17.12.2016 12:52 6,0 C 7,2 C 6,1 C 89 % 0 lf 1036,5 hPa 0,0 l/m 0 min 0 min 98 W/m 10,5 km/h (2 Bft) 89,36 %
17.12.2016 12:54 6,0 C 7,2 C 5,6 C 89 % 0 lf 1036,5 hPa 0,0 l/m 0 min 0 min 88 W/m 14,6 km/h (3 Bft) 95,65 %
17.12.2016 12:56 6,0 C 7,2 C 5,6 C 89 % 0 lf 1036,5 hPa 0,0 l/m 0 min 0 min 74 W/m 16,7 km/h (3 Bft) 95,74 %
17.12.2016 12:58 6,0 C 7,2 C 5,6 C 89 % 0 lf 1036,5 hPa 0,0 l/m 0 min 0 min 60 W/m 10,5 km/h (2 Bft) 97,87 %
17.12.2016 13:00 6,0 C 6,7 C 5,6 C 89 % 0 lf 1036,5 hPa 0,0 l/m 0 min 0 min 53 W/m 12,6 km/h (3 Bft) 93,62 %
17.12.2016 13:02 6,0 C 6,7 C 5,6 C 89 % 0 lf 1036,5 hPa 0,0 l/m 0 min 0 min 53 W/m 16,7 km/h (3 Bft) 91,49 %
17.12.2016 13:04 6,0 C 6,7 C 5,6 C 89 % 0 lf 1036,6 hPa 0,0 l/m 0 min 0 min 54 W/m 16,7 km/h (3 Bft) 91,49 %
17.12.2016 13:06 6,0 C 6,7 C 5,6 C 89 % 0 lf 1036,6 hPa 0,0 l/m 0 min 0 min 59 W/m 14,6 km/h (3 Bft) 95,65 %
17.12.2016 13:08 6,0 C 6,7 C 5,6 C 89 % 0 lf 1036,6 hPa 0,0 l/m 0 min 0 min 66 W/m 12,6 km/h (3 Bft) 97,87 %
17.12.2016 13:10 5,9 C 6,7 C 5,6 C 89 % 0 lf 1036,5 hPa 0,0 l/m 0 min 0 min 74 W/m 12,6 km/h (3 Bft) 95,74 %
17.12.2016 13:12 5,9 C 6,7 C 5,6 C 89 % 0 lf 1036,5 hPa 0,0 l/m 0 min 0 min 80 W/m 10,5 km/h (2 Bft) 95,74 %
17.12.2016 13:14 5,9 C 6,7 C 5,6 C 89 % 0 lf 1036,5 hPa 0,0 l/m 0 min 0 min 74 W/m 8,4 km/h (2 Bft) 93,62 %
17.12.2016 13:16 6,0 C 6,7 C 5,6 C 89 % 0 lf 1036,5 hPa 0,0 l/m 0 min 0 min 65 W/m 12,6 km/h (3 Bft) 91,49 %
17.12.2016 13:18 6,0 C 6,7 C 5,6 C 89 % 0 lf 1036,5 hPa 0,0 l/m 0 min 0 min 59 W/m 10,5 km/h (2 Bft) 97,83 %
17.12.2016 13:20 6,0 C 6,7 C 5,6 C 89 % 0 lf 1036,5 hPa 0,0 l/m 0 min 0 min 60 W/m 10,5 km/h (2 Bft) 93,62 %
17.12.2016 13:22 6,0 C 6,7 C 5,6 C 89 % 0 lf 1036,6 hPa 0,0 l/m 0 min 0 min 57 W/m 8,4 km/h (2 Bft) 91,49 %
17.12.2016 13:24 6,0 C 6,7 C 5,6 C 89 % 0 lf 1036,5 hPa 0,0 l/m 0 min 0 min 49 W/m 10,5 km/h (2 Bft) 95,74 %
17.12.2016 13:26 5,9 C 6,7 C 5,6 C 89 % 0 lf 1036,5 hPa 0,0 l/m 0 min 0 min 48 W/m 10,5 km/h (2 Bft) 97,87 %
17.12.2016 13:28 6,0 C 6,7 C 5,6 C 89 % 0 lf 1036,6 hPa 0,0 l/m 0 min 0 min 42 W/m 8,4 km/h (2 Bft) 95,74 %
17.12.2016 13:30 6,0 C 6,7 C 5,0 C 89 % 0 lf 1036,5 hPa 0,0 l/m 0 min 0 min 40 W/m 12,6 km/h (3 Bft) 93,48 %
17.12.2016 13:32 5,9 C 6,7 C 5,0 C 89 % 0 lf 1036,5 hPa 0,0 l/m 0 min 0 min 45 W/m 12,6 km/h (3 Bft) 95,74 %
17.12.2016 13:34 5,9 C 6,7 C 5,0 C 89 % 0 lf 1036,5 hPa 0,0 l/m 0 min 0 min 52 W/m 8,4 km/h (2 Bft) 93,62 %
17.12.2016 13:36 5,9 C 6,7 C 5,6 C 89 % 0 lf 1036,5 hPa 0,0 l/m 0 min 0 min 49 W/m 8,4 km/h (2 Bft) 93,62 %
17.12.2016 13:38 5,9 C 6,7 C 5,6 C 89 % 0 lf 1036,5 hPa 0,0 l/m 0 min 0 min 46 W/m 8,4 km/h (2 Bft) 97,87 %
17.12.2016 13:40 5,9 C 6,7 C 5,6 C 89 % 0 lf 1036,5 hPa 0,0 l/m 0 min 0 min 48 W/m 8,4 km/h (2 Bft) 93,48 %
17.12.2016 13:42 5,9 C 6,7 C 5,6 C 89 % 0 lf 1036,5 hPa 0,0 l/m 0 min 0 min 49 W/m 4,2 km/h (1 Bft) 97,87 %
17.12.2016 13:44 5,9 C 6,7 C 5,6 C 89 % 0 lf 1036,5 hPa 0,0 l/m 0 min 0 min 47 W/m 6,3 km/h (2 Bft) 97,87 %
17.12.2016 13:46 5,9 C 6,7 C 5,6 C 89 % 0 lf 1036,5 hPa 0,0 l/m 0 min 0 min 42 W/m 8,4 km/h (2 Bft) 97,87 %
17.12.2016 13:48 5,9 C 6,7 C 5,6 C 89 % 0 lf 1036,5 hPa 0,0 l/m 0 min 0 min 42 W/m 8,4 km/h (2 Bft) 97,87 %
17.12.2016 13:50 5,9 C 6,7 C 5,6 C 90 % 0 lf 1036,5 hPa 0,0 l/m 0 min 0 min 47 W/m 8,4 km/h (2 Bft) 97,87 %
17.12.2016 13:52 5,9 C 6,7 C 5,6 C 90 % 0 lf 1036,4 hPa 0,0 l/m 0 min 0 min 49 W/m 8,4 km/h (2 Bft) 100,00 %
17.12.2016 13:54 5,9 C 6,7 C 5,6 C 90 % 0 lf 1036,5 hPa 0,0 l/m 0 min 0 min 50 W/m 8,4 km/h (2 Bft) 97,87 %
17.12.2016 13:56 5,9 C 6,7 C 5,6 C 90 % 0 lf 1036,4 hPa 0,0 l/m 0 min 0 min 56 W/m 10,5 km/h (2 Bft) 97,87 %
17.12.2016 13:58 5,9 C 6,7 C 5,6 C 90 % 0 lf 1036,4 hPa 0,0 l/m 0 min 0 min 61 W/m 10,5 km/h (2 Bft) 97,87 %
17.12.2016 14:00 6,0 C 6,7 C 5,6 C 90 % 0 lf 1036,4 hPa 0,0 l/m 0 min 0 min 63 W/m 6,3 km/h (2 Bft) 100,00 %
17.12.2016 14:02 5,9 C 6,7 C 5,6 C 90 % 0 lf 1036,4 hPa 0,0 l/m 0 min 0 min 59 W/m 6,3 km/h (2 Bft) 100,00 %
17.12.2016 14:04 6,0 C 7,2 C 5,6 C 90 % 0 lf 1036,5 hPa 0,0 l/m 0 min 0 min 48 W/m 6,3 km/h (2 Bft) 100,00 %
17.12.2016 14:06 6,0 C 7,2 C 5,6 C 90 % 0 lf 1036,4 hPa 0,0 l/m 0 min 0 min 41 W/m 6,3 km/h (2 Bft) 100,00 %
17.12.2016 14:08 6,0 C 6,7 C 5,6 C 90 % 0 lf 1036,4 hPa 0,0 l/m 0 min 0 min 43 W/m 4,2 km/h (1 Bft) 97,87 %
17.12.2016 14:10 6,0 C 6,7 C 5,6 C 90 % 0 lf 1036,4 hPa 0,0 l/m 0 min 0 min 44 W/m 6,3 km/h (2 Bft) 97,87 %
17.12.2016 14:12 6,0 C 6,7 C 5,6 C 90 % 0 lf 1036,5 hPa 0,0 l/m 0 min 0 min 46 W/m 6,3 km/h (2 Bft) 100,00 %
17.12.2016 14:14 6,0 C 6,7 C 5,6 C 90 % 0 lf 1036,4 hPa 0,0 l/m 0 min 0 min 46 W/m 6,3 km/h (2 Bft) 97,87 %
17.12.2016 14:16 6,0 C 6,7 C 5,6 C 90 % 0 lf 1036,4 hPa 0,0 l/m 0 min 0 min 44 W/m 8,4 km/h (2 Bft) 97,83 %
17.12.2016 14:18 6,0 C 6,7 C 5,6 C 90 % 0 lf 1036,4 hPa 0,0 l/m 0 min 0 min 45 W/m 10,5 km/h (2 Bft) 100,00 %
17.12.2016 14:20 6,1 C 6,7 C 5,6 C 90 % 0 lf 1036,4 hPa 0,0 l/m 0 min 0 min 49 W/m 8,4 km/h (2 Bft) 95,74 %
17.12.2016 14:22 6,1 C 6,7 C 5,6 C 90 % 0 lf 1036,4 hPa 0,0 l/m 0 min 0 min 51 W/m 4,2 km/h (1 Bft) 97,87 %
17.12.2016 14:24 6,1 C 6,7 C 5,6 C 90 % 0 lf 1036,4 hPa 0,0 l/m 0 min 0 min 49 W/m 6,3 km/h (2 Bft) 100,00 %
17.12.2016 14:26 6,1 C 6,7 C 5,6 C 90 % 0 lf 1036,4 hPa 0,0 l/m 0 min 0 min 47 W/m 6,3 km/h (2 Bft) 97,87 %
17.12.2016 14:28 6,1 C 6,7 C 5,6 C 90 % 0 lf 1036,5 hPa 0,0 l/m 0 min 0 min 45 W/m 8,4 km/h (2 Bft) 97,83 %
17.12.2016 14:30 6,1 C 6,7 C 5,6 C 90 % 0 lf 1036,5 hPa 0,0 l/m 0 min 0 min 42 W/m 8,4 km/h (2 Bft) 97,87 %
17.12.2016 14:32 6,1 C 6,7 C 5,6 C 90 % 0 lf 1036,5 hPa 0,0 l/m 0 min 0 min 44 W/m 8,4 km/h (2 Bft) 100,00 %
17.12.2016 14:34 6,1 C 6,7 C 5,6 C 90 % 0 lf 1036,4 hPa 0,0 l/m 0 min 0 min 43 W/m 10,5 km/h (2 Bft) 97,87 %
17.12.2016 14:36 6,1 C 6,7 C 5,6 C 90 % 0 lf 1036,4 hPa 0,0 l/m 0 min 0 min 39 W/m 10,5 km/h (2 Bft) 95,74 %
17.12.2016 14:38 6,1 C 6,7 C 5,0 C 90 % 0 lf 1036,5 hPa 0,0 l/m 0 min 0 min 33 W/m 12,6 km/h (3 Bft) 97,87 %
17.12.2016 14:40 6,1 C 6,7 C 5,0 C 90 % 0 lf 1036,5 hPa 0,0 l/m 0 min 0 min 29 W/m 10,5 km/h (2 Bft) 97,83 %
17.12.2016 14:42 6,1 C 6,7 C 5,0 C 90 % 0 lf 1036,5 hPa 0,0 l/m 0 min 0 min 26 W/m 12,6 km/h (3 Bft) 97,87 %
17.12.2016 14:44 6,1 C 6,1 C 5,0 C 90 % 0 lf 1036,5 hPa 0,0 l/m 0 min 0 min 27 W/m 8,4 km/h (2 Bft) 93,62 %
17.12.2016 14:46 6,1 C 6,1 C 5,0 C 90 % 0 lf 1036,5 hPa 0,0 l/m 0 min 0 min 26 W/m 10,5 km/h (2 Bft) 95,74 %
17.12.2016 14:48 6,1 C 6,1 C 5,0 C 90 % 0 lf 1036,5 hPa 0,0 l/m 0 min 0 min 26 W/m 8,4 km/h (2 Bft) 97,87 %
17.12.2016 14:50 6,1 C 6,1 C 5,0 C 90 % 0 lf 1036,5 hPa 0,0 l/m 0 min 0 min 28 W/m 10,5 km/h (2 Bft) 91,49 %
17.12.2016 14:52 6,0 C 6,1 C 5,0 C 90 % 0 lf 1036,5 hPa 0,0 l/m 0 min 0 min 32 W/m 8,4 km/h (2 Bft) 97,83 %
17.12.2016 14:54 6,0 C 6,1 C 5,0 C 90 % 0 lf 1036,5 hPa 0,0 l/m 0 min 0 min 34 W/m 8,4 km/h (2 Bft) 97,87 %
17.12.2016 14:56 6,0 C 6,1 C 5,0 C 91 % 0 lf 1036,5 hPa 0,0 l/m 0 min 0 min 35 W/m 6,3 km/h (2 Bft) 95,74 %
17.12.2016 14:58 6,0 C 6,1 C 5,0 C 91 % 0 lf 1036,4 hPa 0,0 l/m 0 min 0 min 33 W/m 4,2 km/h (1 Bft) 93,62 %
17.12.2016 15:00 6,0 C 6,7 C 5,0 C 91 % 0 lf 1036,4 hPa 0,0 l/m 0 min 0 min 30 W/m 4,2 km/h (1 Bft) 93,62 %
17.12.2016 15:02 6,0 C 6,1 C 5,0 C 91 % 0 lf 1036,5 hPa 0,0 l/m 0 min 0 min 26 W/m 8,4 km/h (2 Bft) 95,65 %
17.12.2016 15:04 6,0 C 6,1 C 5,0 C 91 % 0 lf 1036,5 hPa 0,0 l/m 0 min 0 min 25 W/m 8,4 km/h (2 Bft) 97,87 %
17.12.2016 15:06 6,0 C 6,1 C 5,0 C 91 % 0 lf 1036,5 hPa 0,0 l/m 0 min 0 min 26 W/m 10,5 km/h (2 Bft) 97,87 %
17.12.2016 15:08 6,0 C 6,1 C 5,0 C 91 % 0 lf 1036,5 hPa 0,0 l/m 0 min 0 min 28 W/m 8,4 km/h (2 Bft) 97,87 %
17.12.2016 15:10 5,9 C 6,1 C 5,0 C 91 % 0 lf 1036,5 hPa 0,0 l/m 0 min 0 min 30 W/m 8,4 km/h (2 Bft) 95,74 %
17.12.2016 15:12 5,9 C 6,1 C 5,0 C 91 % 0 lf 1036,6 hPa 0,0 l/m 0 min 0 min 30 W/m 8,4 km/h (2 Bft) 93,62 %
17.12.2016 15:14 5,9 C 6,1 C 5,0 C 91 % 0 lf 1036,6 hPa 0,0 l/m 0 min 0 min 28 W/m 8,4 km/h (2 Bft) 95,65 %
17.12.2016 15:16 5,9 C 6,1 C 5,0 C 92 % 0 lf 1036,7 hPa 0,0 l/m 0 min 0 min 25 W/m 10,5 km/h (2 Bft) 93,62 %
17.12.2016 15:18 5,9 C 6,1 C 5,0 C 91 % 0 lf 1036,7 hPa 0,0 l/m 0 min 0 min 19 W/m 8,4 km/h (2 Bft) 97,87 %
17.12.2016 15:20 5,9 C 6,1 C 5,0 C 92 % 0 lf 1036,7 hPa 0,0 l/m 0 min 0 min 17 W/m 12,6 km/h (3 Bft) 95,74 %
17.12.2016 15:22 5,9 C 6,1 C 5,0 C 92 % 0 lf 1036,7 hPa 0,0 l/m 0 min 0 min 17 W/m 10,5 km/h (2 Bft) 97,87 %
17.12.2016 15:24 5,9 C 6,1 C 5,0 C 92 % 0 lf 1036,7 hPa 0,0 l/m 0 min 0 min 18 W/m 10,5 km/h (2 Bft) 97,87 %
17.12.2016 15:26 5,9 C 6,1 C 4,4 C 92 % 0 lf 1036,7 hPa 0,0 l/m 0 min 0 min 17 W/m 8,4 km/h (2 Bft) 97,83 %
17.12.2016 15:28 5,9 C 6,1 C 4,4 C 92 % 0 lf 1036,7 hPa 0,0 l/m 0 min 0 min 18 W/m 10,5 km/h (2 Bft) 95,74 %
17.12.2016 15:30 5,9 C 6,1 C 4,4 C 92 % 0 lf 1036,7 hPa 0,0 l/m 0 min 0 min 17 W/m 6,3 km/h (2 Bft) 95,74 %
17.12.2016 15:32 5,9 C 6,1 C 4,4 C 92 % 0 lf 1036,8 hPa 0,0 l/m 0 min 0 min 16 W/m 8,4 km/h (2 Bft) 97,87 %
17.12.2016 15:34 5,8 C 6,1 C 4,4 C 92 % 0 lf 1036,8 hPa 0,0 l/m 0 min 0 min 17 W/m 8,4 km/h (2 Bft) 95,74 %
17.12.2016 15:36 5,8 C 6,1 C 4,4 C 92 % 0 lf 1036,8 hPa 0,0 l/m 0 min 0 min 19 W/m 8,4 km/h (2 Bft) 91,49 %
17.12.2016 15:38 5,8 C 6,1 C 4,4 C 92 % 0 lf 1036,8 hPa 0,0 l/m 0 min 0 min 19 W/m 10,5 km/h (2 Bft) 93,48 %
17.12.2016 15:40 5,8 C 6,1 C 4,4 C 92 % 0 lf 1036,9 hPa 0,0 l/m 0 min 0 min 18 W/m 12,6 km/h (3 Bft) 97,87 %
17.12.2016 15:42 5,8 C 6,1 C 4,4 C 92 % 0 lf 1036,9 hPa 0,0 l/m 0 min 0 min 17 W/m 10,5 km/h (2 Bft) 95,74 %
17.12.2016 15:44 5,8 C 6,1 C 4,4 C 92 % 0 lf 1037,0 hPa 0,0 l/m 0 min 0 min 16 W/m 12,6 km/h (3 Bft) 95,74 %
17.12.2016 15:46 5,8 C 6,1 C 4,4 C 92 % 0 lf 1037,0 hPa 0,0 l/m 0 min 0 min 16 W/m 12,6 km/h (3 Bft) 91,49 %
17.12.2016 15:48 5,8 C 6,1 C 4,4 C 93 % 0 lf 1036,9 hPa 0,0 l/m 0 min 0 min 14 W/m 12,6 km/h (3 Bft) 97,87 %
17.12.2016 15:50 5,8 C 6,1 C 4,4 C 93 % 0 lf 1036,9 hPa 0,0 l/m 0 min 0 min 14 W/m 10,5 km/h (2 Bft) 97,83 %
17.12.2016 15:52 5,7 C 5,6 C 4,4 C 93 % 0 lf 1036,9 hPa 0,0 l/m 0 min 0 min 14 W/m 8,4 km/h (2 Bft) 91,49 %
17.12.2016 15:54 5,7 C 5,6 C 4,4 C 93 % 0 lf 1036,9 hPa 0,0 l/m 0 min 0 min 14 W/m 14,6 km/h (3 Bft) 93,62 %
17.12.2016 15:56 5,7 C 5,6 C 4,4 C 93 % 0 lf 1036,9 hPa 0,0 l/m 0 min 0 min 14 W/m 8,4 km/h (2 Bft) 95,74 %
17.12.2016 15:58 5,7 C 5,6 C 4,4 C 93 % 0 lf 1036,9 hPa 0,0 l/m 0 min 0 min 16 W/m 8,4 km/h (2 Bft) 95,74 %
17.12.2016 16:00 5,7 C 5,6 C 4,4 C 93 % 0 lf 1037,0 hPa 0,0 l/m 0 min 0 min 18 W/m 10,5 km/h (2 Bft) 93,48 %
17.12.2016 16:02 5,7 C 5,6 C 4,4 C 93 % 0 lf 1037,0 hPa 0,0 l/m 0 min 0 min 16 W/m 10,5 km/h (2 Bft) 95,74 %
17.12.2016 16:04 5,7 C 5,6 C 4,4 C 93 % 0 lf 1037,0 hPa 0,0 l/m 0 min 0 min 14 W/m 6,3 km/h (2 Bft) 93,62 %
17.12.2016 16:06 5,7 C 5,6 C 4,4 C 93 % 0 lf 1037,1 hPa 0,0 l/m 0 min 0 min 11 W/m 8,4 km/h (2 Bft) 95,74 %
17.12.2016 16:08 5,7 C 5,6 C 4,4 C 93 % 0 lf 1037,1 hPa 0,0 l/m 0 min 0 min 10 W/m 10,5 km/h (2 Bft) 95,74 %
17.12.2016 16:10 5,7 C 5,6 C 4,4 C 93 % 0 lf 1037,1 hPa 0,0 l/m 0 min 0 min 9 W/m 8,4 km/h (2 Bft) 91,49 %
17.12.2016 16:12 5,7 C 5,6 C 4,4 C 93 % 0 lf 1037,2 hPa 0,0 l/m 0 min 0 min 9 W/m 10,5 km/h (2 Bft) 95,65 %
17.12.2016 16:14 5,6 C 5,6 C 4,4 C 93 % 0 lf 1037,1 hPa 0,0 l/m 0 min 0 min 9 W/m 4,2 km/h (1 Bft) 91,49 %
17.12.2016 16:16 5,7 C 5,6 C 4,4 C 93 % 0 lf 1037,1 hPa 0,0 l/m 0 min 0 min 7 W/m 8,4 km/h (2 Bft) 95,74 %
17.12.2016 16:18 5,6 C 5,6 C 4,4 C 94 % 0 lf 1037,1 hPa 0,0 l/m 0 min 0 min 7 W/m 8,4 km/h (2 Bft) 95,74 %
17.12.2016 16:20 5,6 C 5,6 C 4,4 C 94 % 0 lf 1037,1 hPa 0,0 l/m 0 min 0 min 7 W/m 6,3 km/h (2 Bft) 93,62 %
17.12.2016 16:22 5,6 C 5,6 C 4,4 C 94 % 0 lf 1037,1 hPa 0,0 l/m 0 min 0 min 7 W/m 6,3 km/h (2 Bft) 97,87 %
17.12.2016 16:24 5,6 C 5,6 C 4,4 C 94 % 0 lf 1037,1 hPa 0,0 l/m 0 min 0 min 7 W/m 8,4 km/h (2 Bft) 95,65 %
17.12.2016 16:26 5,6 C 5,6 C 4,4 C 94 % 0 lf 1037,1 hPa 0,0 l/m 0 min 0 min 6 W/m 4,2 km/h (1 Bft) 95,74 %
17.12.2016 16:28 5,6 C 5,6 C 4,4 C 94 % 0 lf 1037,2 hPa 0,0 l/m 0 min 0 min 5 W/m 6,3 km/h (2 Bft) 93,62 %
17.12.2016 16:30 5,6 C 5,6 C 4,4 C 94 % 0 lf 1037,3 hPa 0,0 l/m 0 min 0 min 5 W/m 6,3 km/h (2 Bft) 97,87 %
17.12.2016 16:32 5,6 C 5,6 C 4,4 C 94 % 0 lf 1037,3 hPa 0,0 l/m 0 min 0 min 5 W/m 6,3 km/h (2 Bft) 93,62 %
17.12.2016 16:34 5,6 C 5,6 C 4,4 C 94 % 0 lf 1037,3 hPa 0,0 l/m 0 min 0 min 5 W/m 6,3 km/h (2 Bft) 97,87 %
17.12.2016 16:36 5,6 C 5,6 C 4,4 C 94 % 0 lf 1037,3 hPa 0,0 l/m 0 min 0 min 5 W/m 8,4 km/h (2 Bft) 95,65 %
17.12.2016 16:38 5,6 C 5,6 C 4,4 C 94 % 0 lf 1037,3 hPa 0,0 l/m 0 min 0 min 5 W/m 6,3 km/h (2 Bft) 93,62 %
17.12.2016 16:40 5,6 C 5,6 C 4,4 C 94 % 0 lf 1037,3 hPa 0,0 l/m 0 min 0 min 5 W/m 8,4 km/h (2 Bft) 97,87 %
17.12.2016 16:42 5,6 C 5,6 C 4,4 C 94 % 0 lf 1037,2 hPa 0,0 l/m 0 min 0 min 5 W/m 4,2 km/h (1 Bft) 97,87 %
17.12.2016 16:44 5,6 C 5,6 C 4,4 C 94 % 0 lf 1037,2 hPa 0,0 l/m 0 min 0 min 5 W/m 4,2 km/h (1 Bft) 95,74 %
17.12.2016 16:46 5,6 C 5,6 C 4,4 C 94 % 0 lf 1037,3 hPa 0,0 l/m 0 min 0 min 5 W/m 6,3 km/h (2 Bft) 93,62 %
17.12.2016 16:48 5,6 C 5,6 C 4,4 C 94 % 0 lf 1037,3 hPa 0,0 l/m 0 min 0 min 5 W/m 8,4 km/h (2 Bft) 97,83 %
17.12.2016 16:50 5,6 C 5,6 C 4,4 C 94 % 0 lf 1037,3 hPa 0,0 l/m 0 min 0 min 5 W/m 6,3 km/h (2 Bft) 95,74 %
17.12.2016 16:52 5,6 C 5,6 C 4,4 C 94 % 0 lf 1037,2 hPa 0,0 l/m 0 min 0 min 5 W/m 4,2 km/h (1 Bft) 97,87 %
17.12.2016 16:54 5,5 C 5,6 C 4,4 C 94 % 0 lf 1037,2 hPa 0,0 l/m 0 min 0 min 5 W/m 4,2 km/h (1 Bft) 95,74 %
17.12.2016 16:56 5,5 C 5,6 C 4,4 C 94 % 0 lf 1037,3 hPa 0,0 l/m 0 min 0 min 5 W/m 4,2 km/h (1 Bft) 93,62 %
17.12.2016 16:58 5,5 C 5,6 C 4,4 C 94 % 0 lf 1037,3 hPa 0,0 l/m 0 min 0 min 5 W/m 6,3 km/h (2 Bft) 95,74 %
17.12.2016 17:00 5,5 C 5,6 C 4,4 C 94 % 1 lf 1037,2 hPa 0,0 l/m 0 min 0 min 5 W/m 8,4 km/h (2 Bft) 97,83 %
17.12.2016 17:02 5,5 C 5,6 C 4,4 C 94 % 0 lf 1037,2 hPa 0,0 l/m 0 min 0 min 5 W/m 6,3 km/h (2 Bft) 95,74 %
17.12.2016 17:04 5,5 C 5,6 C 4,4 C 94 % 0 lf 1037,3 hPa 0,0 l/m 0 min 0 min 5 W/m 6,3 km/h (2 Bft) 95,74 %
17.12.2016 17:06 5,5 C 5,6 C 4,4 C 94 % 1 lf 1037,3 hPa 0,0 l/m 0 min 0 min 5 W/m 6,3 km/h (2 Bft) 95,74 %
17.12.2016 17:08 5,5 C 5,6 C 4,4 C 94 % 1 lf 1037,4 hPa 0,0 l/m 0 min 0 min 5 W/m 6,3 km/h (2 Bft) 97,87 %
17.12.2016 17:10 5,5 C 5,6 C 4,4 C 95 % 1 lf 1037,4 hPa 0,0 l/m 0 min 0 min 5 W/m 6,3 km/h (2 Bft) 95,65 %
17.12.2016 17:12 5,5 C 5,6 C 4,4 C 95 % 1 lf 1037,5 hPa 0,0 l/m 0 min 0 min 5 W/m 6,3 km/h (2 Bft) 95,74 %
17.12.2016 17:14 5,5 C 5,6 C 4,4 C 95 % 1 lf 1037,5 hPa 0,0 l/m 0 min 0 min 5 W/m 10,5 km/h (2 Bft) 93,62 %
17.12.2016 17:16 5,5 C 5,6 C 4,4 C 95 % 1 lf 1037,5 hPa 0,0 l/m 0 min 0 min 5 W/m 8,4 km/h (2 Bft) 93,62 %
17.12.2016 17:18 5,5 C 5,6 C 4,4 C 95 % 1 lf 1037,5 hPa 0,0 l/m 0 min 0 min 5 W/m 6,3 km/h (2 Bft) 93,62 %
17.12.2016 17:20 5,5 C 5,6 C 4,4 C 95 % 1 lf 1037,5 hPa 0,0 l/m 0 min 0 min 5 W/m 6,3 km/h (2 Bft) 95,74 %
17.12.2016 17:22 5,5 C 5,6 C 4,4 C 95 % 1 lf 1037,6 hPa 0,0 l/m 0 min 0 min 5 W/m 6,3 km/h (2 Bft) 93,48 %
17.12.2016 17:24 5,5 C 5,6 C 4,4 C 95 % 1 lf 1037,5 hPa 0,0 l/m 0 min 0 min 5 W/m 8,4 km/h (2 Bft) 95,74 %
17.12.2016 17:26 5,5 C 5,6 C 4,4 C 95 % 1 lf 1037,5 hPa 0,0 l/m 0 min 0 min 5 W/m 10,5 km/h (2 Bft) 93,62 %
17.12.2016 17:28 5,5 C 5,6 C 4,4 C 95 % 1 lf 1037,6 hPa 0,0 l/m 0 min 0 min 5 W/m 8,4 km/h (2 Bft) 95,74 %
17.12.2016 17:30 5,5 C 5,6 C 4,4 C 95 % 1 lf 1037,5 hPa 0,0 l/m 0 min 0 min 5 W/m 8,4 km/h (2 Bft) 95,74 %
17.12.2016 17:32 5,5 C 5,6 C 4,4 C 95 % 1 lf 1037,5 hPa 0,0 l/m 0 min 0 min 5 W/m 10,5 km/h (2 Bft) 93,62 %
17.12.2016 17:34 5,5 C 5,6 C 4,4 C 95 % 1 lf 1037,5 hPa 0,0 l/m 0 min 0 min 5 W/m 10,5 km/h (2 Bft) 95,65 %
17.12.2016 17:36 5,5 C 5,6 C 4,4 C 95 % 1 lf 1037,6 hPa 0,0 l/m 0 min 0 min 5 W/m 10,5 km/h (2 Bft) 93,62 %
17.12.2016 17:38 5,5 C 5,6 C 3,9 C 95 % 1 lf 1037,6 hPa 0,0 l/m 0 min 0 min 5 W/m 10,5 km/h (2 Bft) 93,62 %
17.12.2016 17:40 5,5 C 5,6 C 3,9 C 95 % 2 lf 1037,6 hPa 0,0 l/m 0 min 0 min 5 W/m 8,4 km/h (2 Bft) 95,74 %
17.12.2016 17:42 5,5 C 5,6 C 3,9 C 95 % 2 lf 1037,6 hPa 0,0 l/m 0 min 0 min 5 W/m 10,5 km/h (2 Bft) 97,87 %
17.12.2016 17:44 5,5 C 5,6 C 3,9 C 95 % 2 lf 1037,6 hPa 0,0 l/m 0 min 0 min 5 W/m 8,4 km/h (2 Bft) 93,62 %
17.12.2016 17:46 5,4 C 5,6 C 3,9 C 95 % 2 lf 1037,6 hPa 0,0 l/m 0 min 0 min 5 W/m 8,4 km/h (2 Bft) 97,83 %
17.12.2016 17:48 5,4 C 5,6 C 3,9 C 95 % 3 lf 1037,6 hPa 0,0 l/m 0 min 0 min 5 W/m 8,4 km/h (2 Bft) 95,74 %
17.12.2016 17:50 5,4 C 5,6 C 3,9 C 95 % 3 lf 1037,6 hPa 0,0 l/m 0 min 0 min 5 W/m 10,5 km/h (2 Bft) 97,87 %
17.12.2016 17:52 5,5 C 5,6 C 3,9 C 95 % 4 lf 1037,6 hPa 0,0 l/m 0 min 0 min 5 W/m 8,4 km/h (2 Bft) 91,49 %
17.12.2016 17:54 5,5 C 5,6 C 3,9 C 95 % 8 lf 1037,6 hPa 0,0 l/m 0 min 0 min 5 W/m 6,3 km/h (2 Bft) 93,62 %
17.12.2016 17:56 5,5 C 5,6 C 3,9 C 95 % 11 lf 1037,6 hPa 0,0 l/m 0 min 0 min 5 W/m 8,4 km/h (2 Bft) 100,00 %
17.12.2016 17:58 5,4 C 5,6 C 3,9 C 95 % 13 lf 1037,6 hPa 0,0 l/m 0 min 0 min 5 W/m 8,4 km/h (2 Bft) 100,00 %
17.12.2016 18:00 5,4 C 5,6 C 3,9 C 95 % 14 lf 1037,6 hPa 0,0 l/m 0 min 0 min 5 W/m 8,4 km/h (2 Bft) 97,87 %
17.12.2016 18:02 5,4 C 5,6 C 3,9 C 95 % 15 lf 1037,6 hPa 0,0 l/m 0 min 0 min 5 W/m 6,3 km/h (2 Bft) 97,87 %
17.12.2016 18:06 5,4 C 5,6 C 3,9 C 95 % 15 lf 1037,6 hPa 0,0 l/m 0 min 0 min 5 W/m 6,3 km/h (2 Bft) 97,89 %
17.12.2016 18:08 5,4 C 5,6 C 3,9 C 96 % 15 lf 1037,6 hPa 0,0 l/m 0 min 0 min 5 W/m 2,1 km/h (1 Bft) 93,48 %
17.12.2016 18:10 5,4 C 5,6 C 3,9 C 96 % 15 lf 1037,5 hPa 0,0 l/m 0 min 0 min 5 W/m 4,2 km/h (1 Bft) 97,87 %
17.12.2016 18:12 5,4 C 5,6 C 3,9 C 96 % 15 lf 1037,5 hPa 0,0 l/m 0 min 0 min 5 W/m 6,3 km/h (2 Bft) 100,00 %
17.12.2016 18:14 5,4 C 5,6 C 3,9 C 96 % 15 lf 1037,5 hPa 0,0 l/m 0 min 0 min 5 W/m 6,3 km/h (2 Bft) 97,87 %
17.12.2016 18:16 5,4 C 5,6 C 3,9 C 96 % 15 lf 1037,6 hPa 0,0 l/m 0 min 0 min 5 W/m 8,4 km/h (2 Bft) 100,00 %
17.12.2016 18:18 5,4 C 5,6 C 3,9 C 96 % 15 lf 1037,6 hPa 0,0 l/m 0 min 0 min 5 W/m 8,4 km/h (2 Bft) 97,87 %
17.12.2016 18:20 5,4 C 5,6 C 3,9 C 96 % 15 lf 1037,7 hPa 0,0 l/m 0 min 0 min 5 W/m 6,3 km/h (2 Bft) 95,65 %
17.12.2016 18:22 5,4 C 5,6 C 3,9 C 96 % 15 lf 1037,8 hPa 0,0 l/m 0 min 0 min 5 W/m 6,3 km/h (2 Bft) 100,00 %
17.12.2016 18:24 5,4 C 5,6 C 3,9 C 96 % 15 lf 1037,8 hPa 0,0 l/m 0 min 0 min 5 W/m 4,2 km/h (1 Bft) 100,00 %
17.12.2016 18:26 5,4 C 5,6 C 3,9 C 96 % 15 lf 1037,7 hPa 0,0 l/m 0 min 0 min 5 W/m 6,3 km/h (2 Bft) 93,62 %
17.12.2016 18:28 5,4 C 5,6 C 3,9 C 96 % 15 lf 1037,7 hPa 0,0 l/m 0 min 0 min 5 W/m 4,2 km/h (1 Bft) 100,00 %
17.12.2016 18:30 5,4 C 5,6 C 3,9 C 96 % 15 lf 1037,7 hPa 0,0 l/m 0 min 0 min 5 W/m 6,3 km/h (2 Bft) 97,87 %
17.12.2016 18:32 5,4 C 5,6 C 3,9 C 96 % 15 lf 1037,8 hPa 0,0 l/m 0 min 0 min 5 W/m 8,4 km/h (2 Bft) 93,62 %
17.12.2016 18:34 5,4 C 5,6 C 3,9 C 96 % 15 lf 1037,8 hPa 0,0 l/m 0 min 0 min 5 W/m 6,3 km/h (2 Bft) 95,65 %
17.12.2016 18:36 5,4 C 5,6 C 3,9 C 96 % 15 lf 1037,7 hPa 0,0 l/m 0 min 0 min 5 W/m 6,3 km/h (2 Bft) 97,87 %
17.12.2016 18:38 5,4 C 5,6 C 3,9 C 96 % 15 lf 1037,7 hPa 0,0 l/m 0 min 0 min 5 W/m 6,3 km/h (2 Bft) 95,74 %
17.12.2016 18:40 5,4 C 5,6 C 3,9 C 96 % 15 lf 1037,7 hPa 0,0 l/m 0 min 0 min 5 W/m 4,2 km/h (1 Bft) 97,87 %
17.12.2016 18:42 5,4 C 5,6 C 3,9 C 96 % 15 lf 1037,7 hPa 0,0 l/m 0 min 0 min 5 W/m 4,2 km/h (1 Bft) 97,87 %
17.12.2016 18:44 5,4 C 5,6 C 3,9 C 96 % 15 lf 1037,6 hPa 0,0 l/m 0 min 0 min 5 W/m 4,2 km/h (1 Bft) 93,48 %
17.12.2016 18:46 5,4 C 5,6 C 3,9 C 96 % 15 lf 1037,6 hPa 0,0 l/m 0 min 0 min 5 W/m 8,4 km/h (2 Bft) 95,74 %
17.12.2016 18:48 5,4 C 5,6 C 3,9 C 96 % 15 lf 1037,6 hPa 0,0 l/m 0 min 0 min 5 W/m 4,2 km/h (1 Bft) 97,87 %
17.12.2016 18:50 5,4 C 5,6 C 3,9 C 96 % 15 lf 1037,6 hPa 0,0 l/m 0 min 0 min 5 W/m 4,2 km/h (1 Bft) 97,87 %
17.12.2016 18:52 5,4 C 5,6 C 4,4 C 96 % 15 lf 1037,7 hPa 0,0 l/m 0 min 0 min 5 W/m 8,4 km/h (2 Bft) 97,87 %
17.12.2016 18:54 5,4 C 5,6 C 4,4 C 96 % 15 lf 1037,7 hPa 0,0 l/m 0 min 0 min 5 W/m 10,5 km/h (2 Bft) 97,87 %
17.12.2016 18:56 5,4 C 5,6 C 4,4 C 96 % 15 lf 1037,7 hPa 0,0 l/m 0 min 0 min 5 W/m 6,3 km/h (2 Bft) 93,48 %
17.12.2016 18:58 5,4 C 5,6 C 4,4 C 96 % 15 lf 1037,7 hPa 0,0 l/m 0 min 0 min 5 W/m 4,2 km/h (1 Bft) 93,62 %
17.12.2016 19:00 5,4 C 5,6 C 4,4 C 96 % 15 lf 1037,7 hPa 0,0 l/m 0 min 0 min 5 W/m 6,3 km/h (2 Bft) 95,74 %
17.12.2016 19:02 5,4 C 5,6 C 4,4 C 96 % 15 lf 1037,7 hPa 0,0 l/m 0 min 0 min 5 W/m 4,2 km/h (1 Bft) 95,74 %
17.12.2016 19:04 5,4 C 5,6 C 4,4 C 96 % 15 lf 1037,7 hPa 0,0 l/m 0 min 0 min 5 W/m 0,0 km/h (0 Bft) 93,62 %
17.12.2016 19:06 5,5 C 5,6 C 4,4 C 96 % 15 lf 1037,7 hPa 0,0 l/m 0 min 0 min 5 W/m 0,0 km/h (0 Bft) 93,62 %
17.12.2016 19:08 5,5 C 5,6 C 4,4 C 96 % 15 lf 1037,7 hPa 0,0 l/m 0 min 0 min 5 W/m 0,0 km/h (0 Bft) 97,83 %
17.12.2016 19:10 5,5 C 5,6 C 4,4 C 96 % 15 lf 1037,7 hPa 0,0 l/m 0 min 0 min 5 W/m 0,0 km/h (0 Bft) 95,74 %
17.12.2016 19:12 5,5 C 5,6 C 4,4 C 96 % 15 lf 1037,8 hPa 0,0 l/m 0 min 0 min 5 W/m 0,0 km/h (0 Bft) 91,49 %
17.12.2016 19:14 5,5 C 5,6 C 4,4 C 96 % 15 lf 1037,9 hPa 0,0 l/m 0 min 0 min 5 W/m 0,0 km/h (0 Bft) 95,74 %
17.12.2016 19:16 5,5 C 5,6 C 4,4 C 96 % 15 lf 1037,9 hPa 0,0 l/m 0 min 0 min 5 W/m 0,0 km/h (0 Bft) 93,62 %
17.12.2016 19:18 5,5 C 5,6 C 4,4 C 96 % 15 lf 1037,9 hPa 0,0 l/m 0 min 0 min 5 W/m 0,0 km/h (0 Bft) 93,62 %
17.12.2016 19:20 5,5 C 5,6 C 4,4 C 96 % 15 lf 1037,9 hPa 0,0 l/m 0 min 0 min 5 W/m 0,0 km/h (0 Bft) 95,65 %
17.12.2016 19:22 5,5 C 5,6 C 4,4 C 96 % 15 lf 1037,9 hPa 0,0 l/m 0 min 0 min 5 W/m 4,2 km/h (1 Bft) 97,62 %
17.12.2016 19:24 5,5 C 5,6 C 4,4 C 96 % 15 lf 1037,9 hPa 0,0 l/m 0 min 0 min 5 W/m 4,2 km/h (1 Bft) 100,00 %
17.12.2016 19:26 5,5 C 5,6 C 4,4 C 96 % 15 lf 1038,0 hPa 0,0 l/m 0 min 0 min 5 W/m 6,3 km/h (2 Bft) 97,87 %
17.12.2016 19:28 5,5 C 5,6 C 4,4 C 97 % 15 lf 1038,0 hPa 0,0 l/m 0 min 0 min 5 W/m 4,2 km/h (1 Bft) 100,00 %
17.12.2016 19:30 5,5 C 5,6 C 4,4 C 97 % 15 lf 1037,9 hPa 0,0 l/m 0 min 0 min 5 W/m 6,3 km/h (2 Bft) 97,87 %
17.12.2016 19:32 5,5 C 5,6 C 4,4 C 97 % 15 lf 1037,9 hPa 0,0 l/m 0 min 0 min 5 W/m 6,3 km/h (2 Bft) 100,00 %
17.12.2016 19:34 5,5 C 5,6 C 4,4 C 97 % 15 lf 1037,8 hPa 0,0 l/m 0 min 0 min 5 W/m 8,4 km/h (2 Bft) 95,74 %
17.12.2016 19:36 5,6 C 5,6 C 4,4 C 97 % 15 lf 1037,9 hPa 0,0 l/m 0 min 0 min 5 W/m 8,4 km/h (2 Bft) 95,74 %
17.12.2016 19:38 5,6 C 5,6 C 4,4 C 97 % 15 lf 1037,8 hPa 0,0 l/m 0 min 0 min 5 W/m 4,2 km/h (1 Bft) 100,00 %
17.12.2016 19:40 5,6 C 5,6 C 4,4 C 97 % 15 lf 1037,9 hPa 0,0 l/m 0 min 0 min 5 W/m 4,2 km/h (1 Bft) 97,87 %
17.12.2016 19:42 5,6 C 5,6 C 4,4 C 97 % 15 lf 1037,9 hPa 0,0 l/m 0 min 0 min 5 W/m 4,2 km/h (1 Bft) 97,87 %
17.12.2016 19:44 5,6 C 5,6 C 4,4 C 97 % 15 lf 1038,0 hPa 0,0 l/m 0 min 0 min 5 W/m 6,3 km/h (2 Bft) 95,65 %
17.12.2016 19:46 5,6 C 5,6 C 4,4 C 97 % 15 lf 1038,0 hPa 0,0 l/m 0 min 0 min 5 W/m 6,3 km/h (2 Bft) 100,00 %
17.12.2016 19:48 5,6 C 5,6 C 4,4 C 97 % 15 lf 1038,0 hPa 0,0 l/m 0 min 0 min 5 W/m 4,2 km/h (1 Bft) 95,74 %
17.12.2016 19:50 5,6 C 5,6 C 4,4 C 97 % 15 lf 1037,9 hPa 0,0 l/m 0 min 0 min 5 W/m 4,2 km/h (1 Bft) 95,74 %
17.12.2016 19:52 5,6 C 5,6 C 4,4 C 97 % 15 lf 1038,0 hPa 0,0 l/m 0 min 0 min 5 W/m 4,2 km/h (1 Bft) 95,74 %
17.12.2016 19:54 5,6 C 5,6 C 4,4 C 97 % 15 lf 1038,1 hPa 0,0 l/m 0 min 0 min 5 W/m 6,3 km/h (2 Bft) 97,87 %
17.12.2016 19:56 5,6 C 5,6 C 4,4 C 97 % 15 lf 1038,1 hPa 0,0 l/m 0 min 0 min 5 W/m 6,3 km/h (2 Bft) 95,65 %
17.12.2016 19:58 5,6 C 5,6 C 4,4 C 97 % 15 lf 1038,1 hPa 0,0 l/m 0 min 0 min 5 W/m 4,2 km/h (1 Bft) 97,87 %
17.12.2016 20:00 5,6 C 5,6 C 4,4 C 97 % 15 lf 1038,1 hPa 0,0 l/m 0 min 0 min 5 W/m 4,2 km/h (1 Bft) 97,87 %
17.12.2016 20:02 5,6 C 5,6 C 4,4 C 97 % 15 lf 1038,0 hPa 0,0 l/m 0 min 0 min 5 W/m 8,4 km/h (2 Bft) 95,74 %
17.12.2016 20:04 5,6 C 5,6 C 4,4 C 97 % 15 lf 1038,1 hPa 0,0 l/m 0 min 0 min 5 W/m 6,3 km/h (2 Bft) 93,62 %
17.12.2016 20:06 5,6 C 5,6 C 4,4 C 97 % 15 lf 1038,1 hPa 0,0 l/m 0 min 0 min 5 W/m 4,2 km/h (1 Bft) 93,62 %
17.12.2016 20:08 5,6 C 5,6 C 4,4 C 97 % 15 lf 1038,1 hPa 0,0 l/m 0 min 0 min 5 W/m 6,3 km/h (2 Bft) 95,65 %
17.12.2016 20:10 5,6 C 5,6 C 4,4 C 97 % 15 lf 1038,2 hPa 0,0 l/m 0 min 0 min 5 W/m 4,2 km/h (1 Bft) 95,74 %
17.12.2016 20:12 5,7 C 5,6 C 4,4 C 97 % 15 lf 1038,1 hPa 0,0 l/m 0 min 2 min 5 W/m 0,0 km/h (0 Bft) 95,74 %
17.12.2016 20:14 5,7 C 5,6 C 4,4 C 97 % 15 lf 1038,2 hPa 0,0 l/m 0 min 2 min 5 W/m 8,4 km/h (2 Bft) 95,74 %
17.12.2016 20:16 5,7 C 5,6 C 4,4 C 97 % 15 lf 1038,3 hPa 0,0 l/m 0 min 0 min 5 W/m 8,4 km/h (2 Bft) 95,74 %
17.12.2016 20:18 5,7 C 5,6 C 4,4 C 97 % 15 lf 1038,4 hPa 0,0 l/m 0 min 0 min 5 W/m 8,4 km/h (2 Bft) 95,65 %
17.12.2016 20:20 5,7 C 5,6 C 4,4 C 97 % 15 lf 1038,4 hPa 0,0 l/m 0 min 0 min 5 W/m 6,3 km/h (2 Bft) 93,62 %
17.12.2016 20:22 5,7 C 5,6 C 4,4 C 97 % 15 lf 1038,4 hPa 0,0 l/m 0 min 0 min 5 W/m 6,3 km/h (2 Bft) 95,74 %
17.12.2016 20:24 5,7 C 5,6 C 4,4 C 97 % 15 lf 1038,4 hPa 0,0 l/m 0 min 0 min 5 W/m 2,1 km/h (1 Bft) 89,36 %
17.12.2016 20:26 5,7 C 5,6 C 4,4 C 97 % 15 lf 1038,4 hPa 0,0 l/m 0 min 0 min 5 W/m 4,2 km/h (1 Bft) 93,62 %
17.12.2016 20:28 5,7 C 5,6 C 4,4 C 97 % 15 lf 1038,3 hPa 0,0 l/m 0 min 0 min 5 W/m 4,2 km/h (1 Bft) 93,62 %
17.12.2016 20:30 5,7 C 5,6 C 4,4 C 97 % 15 lf 1038,4 hPa 0,0 l/m 0 min 0 min 5 W/m 4,2 km/h (1 Bft) 95,65 %
17.12.2016 20:32 5,7 C 5,6 C 4,4 C 97 % 15 lf 1038,4 hPa 0,0 l/m 0 min 0 min 5 W/m 4,2 km/h (1 Bft) 97,87 %
17.12.2016 20:34 5,7 C 5,6 C 4,4 C 97 % 15 lf 1038,5 hPa 0,0 l/m 0 min 0 min 5 W/m 4,2 km/h (1 Bft) 97,87 %
17.12.2016 20:36 5,7 C 5,6 C 4,4 C 97 % 15 lf 1038,5 hPa 0,0 l/m 0 min 0 min 5 W/m 4,2 km/h (1 Bft) 97,87 %
17.12.2016 20:38 5,7 C 5,6 C 4,4 C 97 % 15 lf 1038,6 hPa 0,0 l/m 0 min 0 min 5 W/m 4,2 km/h (1 Bft) 95,74 %
17.12.2016 20:40 5,7 C 5,6 C 4,4 C 97 % 15 lf 1038,6 hPa 0,0 l/m 0 min 0 min 5 W/m 2,1 km/h (1 Bft) 93,62 %
17.12.2016 20:42 5,7 C 5,6 C 4,4 C 97 % 15 lf 1038,6 hPa 0,0 l/m 0 min 0 min 5 W/m 4,2 km/h (1 Bft) 93,48 %
17.12.2016 20:44 5,7 C 6,1 C 4,4 C 97 % 15 lf 1038,6 hPa 0,0 l/m 0 min 0 min 5 W/m 2,1 km/h (1 Bft) 97,87 %
17.12.2016 20:46 5,7 C 6,1 C 4,4 C 97 % 15 lf 1038,6 hPa 0,0 l/m 0 min 0 min 5 W/m 4,2 km/h (1 Bft) 95,74 %
17.12.2016 20:48 5,7 C 6,1 C 4,4 C 97 % 15 lf 1038,6 hPa 0,0 l/m 0 min 0 min 5 W/m 6,3 km/h (2 Bft) 97,87 %
17.12.2016 20:50 5,7 C 5,6 C 4,4 C 97 % 15 lf 1038,6 hPa 0,0 l/m 0 min 0 min 5 W/m 4,2 km/h (1 Bft) 95,74 %
17.12.2016 20:52 5,7 C 5,6 C 4,4 C 97 % 15 lf 1038,6 hPa 0,0 l/m 0 min 0 min 5 W/m 4,2 km/h (1 Bft) 93,62 %
17.12.2016 20:54 5,7 C 5,6 C 4,4 C 97 % 15 lf 1038,6 hPa 0,0 l/m 0 min 0 min 5 W/m 6,3 km/h (2 Bft) 93,62 %
17.12.2016 20:56 5,7 C 5,6 C 4,4 C 97 % 15 lf 1038,5 hPa 0,0 l/m 0 min 0 min 5 W/m 2,1 km/h (1 Bft) 95,65 %
17.12.2016 20:58 5,7 C 5,6 C 4,4 C 97 % 15 lf 1038,6 hPa 0,0 l/m 0 min 0 min 5 W/m 2,1 km/h (1 Bft) 95,74 %
17.12.2016 21:00 5,7 C 5,6 C 4,4 C 97 % 15 lf 1038,6 hPa 0,0 l/m 0 min 0 min 5 W/m 2,1 km/h (1 Bft) 95,74 %
17.12.2016 21:02 5,7 C 5,6 C 4,4 C 97 % 15 lf 1038,6 hPa 0,0 l/m 0 min 0 min 5 W/m 2,1 km/h (1 Bft) 95,74 %
17.12.2016 21:04 5,7 C 5,6 C 4,4 C 97 % 15 lf 1038,6 hPa 0,0 l/m 0 min 0 min 5 W/m 4,2 km/h (1 Bft) 95,74 %
17.12.2016 21:06 5,7 C 5,6 C 4,4 C 97 % 15 lf 1038,6 hPa 0,0 l/m 0 min 0 min 5 W/m 6,3 km/h (2 Bft) 95,65 %
17.12.2016 21:08 5,7 C 5,6 C 4,4 C 97 % 15 lf 1038,6 hPa 0,0 l/m 0 min 0 min 5 W/m 6,3 km/h (2 Bft) 95,74 %
17.12.2016 21:10 5,7 C 5,6 C 4,4 C 97 % 15 lf 1038,6 hPa 0,0 l/m 0 min 0 min 5 W/m 4,2 km/h (1 Bft) 95,74 %
17.12.2016 21:12 5,8 C 5,6 C 4,4 C 97 % 15 lf 1038,6 hPa 0,0 l/m 0 min 0 min 5 W/m 2,1 km/h (1 Bft) 91,49 %
17.12.2016 21:14 5,8 C 6,1 C 4,4 C 97 % 15 lf 1038,6 hPa 0,0 l/m 0 min 0 min 5 W/m 0,0 km/h (0 Bft) 100,00 %
17.12.2016 21:16 5,8 C 6,1 C 4,4 C 97 % 15 lf 1038,6 hPa 0,0 l/m 0 min 0 min 5 W/m 0,0 km/h (0 Bft) 97,87 %
17.12.2016 21:18 5,8 C 6,1 C 4,4 C 97 % 15 lf 1038,6 hPa 0,0 l/m 0 min 0 min 5 W/m 0,0 km/h (0 Bft) 100,00 %
17.12.2016 21:20 5,8 C 6,1 C 4,4 C 97 % 15 lf 1038,7 hPa 0,0 l/m 0 min 0 min 5 W/m 0,0 km/h (0 Bft) 97,87 %
17.12.2016 21:22 5,8 C 6,1 C 4,4 C 97 % 15 lf 1038,7 hPa 0,0 l/m 0 min 0 min 5 W/m 0,0 km/h (0 Bft) 100,00 %
17.12.2016 21:24 5,8 C 6,1 C 4,4 C 97 % 15 lf 1038,7 hPa 0,0 l/m 0 min 0 min 5 W/m 0,0 km/h (0 Bft) 100,00 %
17.12.2016 21:26 5,8 C 6,1 C 4,4 C 97 % 15 lf 1038,7 hPa 0,0 l/m 0 min 0 min 5 W/m 0,0 km/h (0 Bft) 93,62 %
17.12.2016 21:28 5,8 C 6,1 C 4,4 C 97 % 15 lf 1038,7 hPa 0,0 l/m 0 min 0 min 5 W/m 4,2 km/h (1 Bft) 100,00 %
17.12.2016 21:30 5,8 C 6,1 C 4,4 C 97 % 15 lf 1038,7 hPa 0,0 l/m 0 min 0 min 5 W/m 4,2 km/h (1 Bft) 97,83 %
17.12.2016 21:32 5,8 C 6,1 C 4,4 C 97 % 15 lf 1038,7 hPa 0,0 l/m 0 min 0 min 5 W/m 4,2 km/h (1 Bft) 97,87 %
17.12.2016 21:34 5,8 C 6,1 C 4,4 C 97 % 15 lf 1038,7 hPa 0,0 l/m 0 min 0 min 5 W/m 0,0 km/h (0 Bft) 89,36 %
17.12.2016 21:36 5,8 C 6,1 C 4,4 C 97 % 15 lf 1038,7 hPa 0,0 l/m 0 min 0 min 5 W/m 0,0 km/h (0 Bft) 95,74 %
17.12.2016 21:38 5,8 C 6,1 C 4,4 C 97 % 15 lf 1038,7 hPa 0,0 l/m 0 min 0 min 5 W/m 0,0 km/h (0 Bft) 95,74 %
17.12.2016 21:40 5,8 C 6,1 C 4,4 C 97 % 15 lf 1038,8 hPa 0,0 l/m 0 min 0 min 5 W/m 0,0 km/h (0 Bft) 95,65 %
17.12.2016 21:42 5,8 C 6,1 C 4,4 C 97 % 15 lf 1038,8 hPa 0,0 l/m 0 min 0 min 5 W/m 0,0 km/h (0 Bft) 95,74 %
17.12.2016 21:44 5,8 C 6,1 C 4,4 C 97 % 15 lf 1038,8 hPa 0,0 l/m 0 min 0 min 5 W/m 0,0 km/h (0 Bft) 95,74 %
17.12.2016 21:46 5,8 C 6,1 C 4,4 C 97 % 15 lf 1038,8 hPa 0,0 l/m 0 min 0 min 5 W/m 0,0 km/h (0 Bft) 93,62 %
17.12.2016 21:48 5,8 C 6,1 C 4,4 C 97 % 15 lf 1038,9 hPa 0,0 l/m 0 min 0 min 5 W/m 0,0 km/h (0 Bft) 97,87 %
17.12.2016 21:50 5,8 C 6,1 C 4,4 C 97 % 15 lf 1038,9 hPa 0,0 l/m 0 min 0 min 5 W/m 0,0 km/h (0 Bft) 97,87 %
17.12.2016 21:52 5,8 C 6,1 C 4,4 C 97 % 15 lf 1038,8 hPa 0,0 l/m 0 min 0 min 5 W/m 0,0 km/h (0 Bft) 93,48 %
17.12.2016 21:54 5,8 C 6,1 C 4,4 C 97 % 15 lf 1038,7 hPa 0,0 l/m 0 min 0 min 5 W/m 0,0 km/h (0 Bft) 97,87 %
17.12.2016 21:56 5,8 C 6,1 C 4,4 C 97 % 15 lf 1038,7 hPa 0,0 l/m 0 min 0 min 5 W/m 0,0 km/h (0 Bft) 95,74 %
17.12.2016 21:58 5,8 C 6,1 C 4,4 C 97 % 15 lf 1038,7 hPa 0,0 l/m 0 min 0 min 5 W/m 0,0 km/h (0 Bft) 95,74 %
17.12.2016 22:00 5,8 C 6,1 C 4,4 C 97 % 15 lf 1038,6 hPa 0,0 l/m 0 min 0 min 5 W/m 0,0 km/h (0 Bft) 97,87 %
17.12.2016 22:02 5,8 C 6,1 C 4,4 C 97 % 15 lf 1038,6 hPa 0,0 l/m 0 min 0 min 5 W/m 0,0 km/h (0 Bft) 95,74 %
17.12.2016 22:04 5,8 C 6,1 C 4,4 C 97 % 15 lf 1038,6 hPa 0,0 l/m 0 min 0 min 5 W/m 0,0 km/h (0 Bft) 97,83 %
17.12.2016 22:06 5,8 C 6,1 C 4,4 C 97 % 15 lf 1038,5 hPa 0,0 l/m 0 min 0 min 5 W/m 6,3 km/h (2 Bft) 97,87 %
17.12.2016 22:08 5,8 C 6,1 C 4,4 C 97 % 15 lf 1038,5 hPa 0,0 l/m 0 min 0 min 5 W/m 6,3 km/h (2 Bft) 93,62 %
17.12.2016 22:10 5,8 C 6,1 C 4,4 C 97 % 15 lf 1038,5 hPa 0,0 l/m 0 min 0 min 5 W/m 4,2 km/h (1 Bft) 95,74 %
17.12.2016 22:12 5,8 C 6,1 C 4,4 C 97 % 15 lf 1038,6 hPa 0,0 l/m 0 min 2 min 5 W/m 4,2 km/h (1 Bft) 97,87 %
17.12.2016 22:14 5,8 C 6,1 C 4,4 C 97 % 15 lf 1038,6 hPa 0,0 l/m 0 min 0 min 5 W/m 4,2 km/h (1 Bft) 97,87 %
17.12.2016 22:16 5,8 C 6,1 C 4,4 C 97 % 15 lf 1038,6 hPa 0,0 l/m 0 min 0 min 5 W/m 4,2 km/h (1 Bft) 93,48 %
17.12.2016 22:18 5,8 C 6,1 C 4,4 C 97 % 15 lf 1038,5 hPa 0,0 l/m 0 min 0 min 5 W/m 4,2 km/h (1 Bft) 100,00 %
17.12.2016 22:20 5,8 C 6,1 C 4,4 C 97 % 15 lf 1038,4 hPa 0,0 l/m 0 min 0 min 5 W/m 4,2 km/h (1 Bft) 97,87 %
17.12.2016 22:22 5,8 C 6,1 C 4,4 C 97 % 15 lf 1038,4 hPa 0,0 l/m 0 min 0 min 5 W/m 4,2 km/h (1 Bft) 97,87 %
17.12.2016 22:24 5,8 C 6,1 C 4,4 C 97 % 15 lf 1038,4 hPa 0,0 l/m 0 min 0 min 5 W/m 2,1 km/h (1 Bft) 89,36 %
17.12.2016 22:26 5,8 C 6,1 C 4,4 C 97 % 15 lf 1038,3 hPa 0,0 l/m 0 min 0 min 5 W/m 2,1 km/h (1 Bft) 93,62 %
17.12.2016 22:28 5,8 C 6,1 C 4,4 C 97 % 15 lf 1038,3 hPa 0,0 l/m 0 min 0 min 5 W/m 6,3 km/h (2 Bft) 93,48 %
17.12.2016 22:30 5,8 C 6,1 C 4,4 C 97 % 15 lf 1038,3 hPa 0,0 l/m 0 min 0 min 5 W/m 6,3 km/h (2 Bft) 97,87 %
17.12.2016 22:32 5,9 C 6,1 C 4,4 C 97 % 15 lf 1038,3 hPa 0,0 l/m 0 min 0 min 5 W/m 6,3 km/h (2 Bft) 97,87 %
17.12.2016 22:34 5,8 C 6,1 C 4,4 C 97 % 15 lf 1038,3 hPa 0,0 l/m 0 min 0 min 5 W/m 6,3 km/h (2 Bft) 93,62 %
17.12.2016 22:36 5,9 C 6,1 C 4,4 C 97 % 15 lf 1038,3 hPa 0,0 l/m 0 min 0 min 5 W/m 6,3 km/h (2 Bft) 87,23 %
17.12.2016 22:38 5,9 C 6,1 C 4,4 C 97 % 15 lf 1038,3 hPa 0,0 l/m 0 min 0 min 5 W/m 4,2 km/h (1 Bft) 93,48 %
17.12.2016 22:40 5,9 C 6,1 C 4,4 C 97 % 15 lf 1038,2 hPa 0,0 l/m 0 min 0 min 5 W/m 6,3 km/h (2 Bft) 95,74 %
17.12.2016 22:42 5,9 C 6,1 C 4,4 C 97 % 15 lf 1038,2 hPa 0,0 l/m 0 min 0 min 5 W/m 4,2 km/h (1 Bft) 93,62 %
17.12.2016 22:44 5,9 C 6,1 C 4,4 C 97 % 15 lf 1038,2 hPa 0,0 l/m 0 min 0 min 5 W/m 4,2 km/h (1 Bft) 95,74 %
17.12.2016 22:46 5,9 C 6,1 C 4,4 C 97 % 15 lf 1038,2 hPa 0,0 l/m 0 min 0 min 5 W/m 4,2 km/h (1 Bft) 95,74 %
17.12.2016 22:48 5,9 C 6,1 C 4,4 C 97 % 15 lf 1038,1 hPa 0,0 l/m 0 min 0 min 5 W/m 6,3 km/h (2 Bft) 93,62 %
17.12.2016 22:50 5,9 C 6,1 C 4,4 C 97 % 15 lf 1038,1 hPa 0,0 l/m 0 min 0 min 5 W/m 8,4 km/h (2 Bft) 95,65 %
17.12.2016 22:52 5,9 C 6,1 C 4,4 C 97 % 15 lf 1038,0 hPa 0,0 l/m 0 min 0 min 5 W/m 6,3 km/h (2 Bft) 95,74 %
17.12.2016 22:54 5,9 C 6,1 C 4,4 C 97 % 15 lf 1037,9 hPa 0,0 l/m 0 min 0 min 5 W/m 6,3 km/h (2 Bft) 95,74 %
17.12.2016 22:56 5,9 C 6,1 C 4,4 C 97 % 15 lf 1037,8 hPa 0,0 l/m 0 min 0 min 5 W/m 8,4 km/h (2 Bft) 91,49 %
17.12.2016 22:58 5,9 C 6,1 C 4,4 C 97 % 15 lf 1037,8 hPa 0,0 l/m 0 min 0 min 5 W/m 8,4 km/h (2 Bft) 93,62 %
17.12.2016 23:00 5,9 C 6,1 C 4,4 C 97 % 15 lf 1037,7 hPa 0,0 l/m 0 min 0 min 5 W/m 10,5 km/h (2 Bft) 95,74 %
17.12.2016 23:02 5,9 C 6,1 C 4,4 C 97 % 15 lf 1037,7 hPa 0,0 l/m 0 min 0 min 5 W/m 6,3 km/h (2 Bft) 93,48 %
17.12.2016 23:04 5,9 C 6,1 C 4,4 C 97 % 15 lf 1037,9 hPa 0,0 l/m 0 min 0 min 5 W/m 6,3 km/h (2 Bft) 95,74 %
17.12.2016 23:06 5,9 C 6,1 C 4,4 C 97 % 15 lf 1037,8 hPa 0,0 l/m 0 min 0 min 5 W/m 6,3 km/h (2 Bft) 97,87 %
17.12.2016 23:08 5,9 C 6,1 C 4,4 C 97 % 15 lf 1037,8 hPa 0,0 l/m 0 min 0 min 5 W/m 8,4 km/h (2 Bft) 97,87 %
17.12.2016 23:10 5,9 C 6,1 C 4,4 C 98 % 15 lf 1037,9 hPa 0,0 l/m 0 min 0 min 5 W/m 6,3 km/h (2 Bft) 100,00 %
17.12.2016 23:12 6,0 C 6,1 C 5,0 C 98 % 15 lf 1037,9 hPa 0,0 l/m 0 min 0 min 5 W/m 6,3 km/h (2 Bft) 97,87 %
17.12.2016 23:14 6,0 C 6,1 C 5,0 C 98 % 15 lf 1037,9 hPa 0,0 l/m 0 min 0 min 5 W/m 8,4 km/h (2 Bft) 100,00 %
17.12.2016 23:16 6,0 C 6,1 C 5,0 C 98 % 15 lf 1037,8 hPa 0,0 l/m 0 min 0 min 5 W/m 6,3 km/h (2 Bft) 100,00 %
17.12.2016 23:18 6,0 C 6,1 C 5,0 C 98 % 15 lf 1037,8 hPa 0,0 l/m 0 min 0 min 5 W/m 6,3 km/h (2 Bft) 97,87 %
17.12.2016 23:20 6,0 C 6,1 C 5,0 C 98 % 15 lf 1037,7 hPa 0,0 l/m 0 min 0 min 5 W/m 6,3 km/h (2 Bft) 100,00 %
17.12.2016 23:22 6,0 C 6,1 C 4,4 C 98 % 15 lf 1037,8 hPa 0,0 l/m 0 min 0 min 5 W/m 4,2 km/h (1 Bft) 100,00 %
17.12.2016 23:24 6,0 C 6,1 C 4,4 C 98 % 15 lf 1037,9 hPa 0,0 l/m 0 min 0 min 5 W/m 4,2 km/h (1 Bft) 100,00 %
17.12.2016 23:26 6,0 C 6,1 C 4,4 C 98 % 15 lf 1037,9 hPa 0,0 l/m 0 min 0 min 5 W/m 6,3 km/h (2 Bft) 100,00 %
17.12.2016 23:28 6,0 C 6,1 C 4,4 C 98 % 15 lf 1037,9 hPa 0,0 l/m 0 min 0 min 5 W/m 6,3 km/h (2 Bft) 100,00 %
17.12.2016 23:30 6,0 C 6,1 C 4,4 C 98 % 15 lf 1037,9 hPa 0,0 l/m 0 min 0 min 5 W/m 6,3 km/h (2 Bft) 100,00 %
17.12.2016 23:32 6,0 C 6,1 C 4,4 C 98 % 15 lf 1037,9 hPa 0,0 l/m 0 min 0 min 5 W/m 4,2 km/h (1 Bft) 97,87 %
17.12.2016 23:34 6,0 C 6,1 C 4,4 C 98 % 15 lf 1037,9 hPa 0,0 l/m 0 min 0 min 5 W/m 6,3 km/h (2 Bft) 97,87 %
17.12.2016 23:36 6,0 C 6,1 C 4,4 C 98 % 15 lf 1037,8 hPa 0,0 l/m 0 min 0 min 5 W/m 6,3 km/h (2 Bft) 100,00 %
17.12.2016 23:38 6,0 C 6,1 C 4,4 C 98 % 15 lf 1037,7 hPa 0,0 l/m 0 min 0 min 5 W/m 6,3 km/h (2 Bft) 100,00 %
17.12.2016 23:40 6,0 C 6,1 C 4,4 C 98 % 15 lf 1037,7 hPa 0,0 l/m 0 min 0 min 5 W/m 4,2 km/h (1 Bft) 100,00 %
17.12.2016 23:42 6,0 C 6,1 C 4,4 C 98 % 15 lf 1037,7 hPa 0,0 l/m 0 min 0 min 5 W/m 6,3 km/h (2 Bft) 100,00 %
17.12.2016 23:44 6,0 C 6,1 C 4,4 C 98 % 15 lf 1037,7 hPa 0,0 l/m 0 min 0 min 5 W/m 4,2 km/h (1 Bft) 100,00 %
17.12.2016 23:46 6,0 C 6,1 C 4,4 C 98 % 15 lf 1037,6 hPa 0,0 l/m 0 min 0 min 5 W/m 4,2 km/h (1 Bft) 97,87 %
17.12.2016 23:48 6,0 C 6,1 C 4,4 C 98 % 15 lf 1037,5 hPa 0,0 l/m 0 min 0 min 5 W/m 6,3 km/h (2 Bft) 97,87 %
17.12.2016 23:50 6,0 C 6,1 C 4,4 C 98 % 15 lf 1037,4 hPa 0,0 l/m 0 min 0 min 5 W/m 6,3 km/h (2 Bft) 97,83 %
17.12.2016 23:52 6,0 C 6,1 C 4,4 C 98 % 15 lf 1037,3 hPa 0,0 l/m 0 min 0 min 5 W/m 6,3 km/h (2 Bft) 97,87 %
17.12.2016 23:54 6,0 C 6,1 C 4,4 C 98 % 15 lf 1037,0 hPa 0,0 l/m 0 min 0 min 5 W/m 8,4 km/h (2 Bft) 100,00 %
17.12.2016 23:56 6,0 C 6,1 C 4,4 C 98 % 15 lf 1036,9 hPa 0,0 l/m 0 min 0 min 5 W/m 6,3 km/h (2 Bft) 100,00 %
17.12.2016 23:58 6,0 C 6,1 C 4,4 C 98 % 15 lf 1037,0 hPa 0,0 l/m 0 min 0 min 5 W/m 4,2 km/h (1 Bft) 100,00 %
_ Min-Zeit 06:58 05:52 06:16 12:30 00:00 00:16 - - - - 08:30 09:18
Minimum _ 2,0 C 2,2 C 0,0 C 89 % 0 lf 1032,7 hPa - - - - 0,0 km/h (0 Bft) 87,23 %
_ Max-Zeit 14:16 11:58 12:42 23:10 18:02 21:48 00:00 10:12 20:12 11:50 00:34 00:06
Maximum _ 6,1 C 9,4 C 6,1 C 98 % 15 lf 1038,9 hPa 0,0 l/m 2 min 2 min 202 W/m 25,1 km/h
SO (4 Bft)
100,00 %
Durchschnitt _ 4,3 C 4,8 C 3,2 C 94 % 4 lf 1036,0 hPa #0,0 l/m #1:38 h #6 min. 33 W/m 9,0 km/h (2 Bft) 96,08 %
© 2016 W. Hausmann